[{"header": {"dx": 0.06612293990616946, "dy": 0.0552356325346848, "nx": 98, "ny": 59, "la1": 35.046912555036876, "la2": 31.78801023549047, "lo1": -121.43107172385933, "lo2": -114.95102361305473, "refTime": "2026041010", "parameterCategory": 1, "parameterNumber": 2}, "data": [-0.0, -0.0, -0.0, -0.0, -0.0, -2.89, -2.89, -2.89, -3.58, -3.58, -4.38, -5.2, -8.85, -7.9, -7.27, -7.59, -10.73, -10.73, -10.73, -7.27, -0.0, 2.97, 5.36, 5.36, 7.15, 7.51, 8.05, 8.05, 6.32, 5.36, 2.28, -6.32, -8.49, -6.71, -6.71, -6.26, 7.15, 7.15, 7.6, 8.05, -8.49, 0.0, 8.22, 10.79, 12.27, 13.68, 15.31, 16.22, 16.69, 15.97, 11.6, 8.53, 9.08, 9.42, 9.76, 9.76, 10.09, 10.59, 11.16, 11.16, 11.72, 11.72, 10.99, 10.55, 9.17, 9.48, 11.09, 11.88, 12.39, 12.45, 12.56, 11.95, 11.54, 11.56, 11.87, 11.87, 11.87, 13.41, -9.8, -10.41, -8.23, -5.9, -5.63, -4.0, -1.75, 0.0, 2.06, 5.1, 7.07, 8.0, 9.84, 10.48, 10.53, 10.29, 10.29, 10.66, 9.27, 8.82, -0.0, -0.0, -0.0, -0.0, -0.0, -2.89, -3.69, -3.69, -3.58, -4.66, -0.0, -0.0, -8.22, -7.59, -0.0, -11.18, -10.28, -11.62, -10.28, -8.8, -0.0, -0.0, 4.2, 6.32, 5.69, 6.79, 7.15, 7.15, 6.32, 4.0, 1.58, -0.0, -5.37, -6.26, -6.26, -7.15, 8.05, 8.05, 8.49, 8.94, 0.0, 0.0, 7.19, 8.94, 11.7, 13.36, 15.91, 16.41, 16.99, 11.99, 8.82, 9.3, 9.3, 9.17, 9.42, 9.17, 10.09, 10.59, 11.16, 11.5, 11.99, 11.33, 10.99, 9.96, 8.3, 9.17, 10.09, 10.99, 11.58, 12.04, 12.56, 11.87, 12.39, 12.51, 12.66, 12.42, 12.27, 13.41, -9.8, -10.41, -8.23, -5.9, -5.63, -4.0, -1.75, 0.0, 2.06, 5.1, 7.07, 8.0, 9.84, 10.48, 10.53, 10.29, 10.29, 10.66, 9.27, 8.82, -0.0, -0.0, -0.0, -0.0, -0.0, -3.58, -3.69, -3.69, -3.69, -0.0, -0.0, -0.0, -0.0, -11.62, -10.73, -7.59, -11.18, -11.18, -11.18, -11.18, -8.8, -7.59, -0.0, 5.7, 6.32, 6.01, 6.32, 7.15, 7.44, -0.0, -0.0, -0.0, 1.73, 3.4, 4.74, 8.49, 8.05, 8.94, 9.39, 10.28, 0.0, 2.72, 7.98, 9.92, 12.08, 14.22, 17.47, 18.33, 10.47, 8.73, 9.48, 9.86, 10.24, 10.19, 9.5, 10.18, 10.73, 11.16, 11.5, 11.99, 11.99, 11.33, 10.55, 8.3, 7.54, 7.78, 9.17, 10.12, 10.79, 11.6, 12.29, 13.23, 13.11, 13.19, 12.86, 12.45, 12.47, 14.3, -11.53, -11.5, -8.23, -6.64, -5.36, -4.6, -2.83, -1.47, 1.32, 3.15, 6.32, 8.93, 11.5, 11.53, 10.55, 9.9, 9.27, 9.04, 8.43, 8.21, -0.0, -0.0, -0.0, -0.0, -0.0, -0.0, -3.69, -4.81, -4.66, -0.0, -0.0, -0.0, -0.0, -11.18, -11.18, -11.18, -11.62, -12.07, -12.07, -11.18, -11.18, -10.28, -0.0, -0.0, 4.8, 5.9, 5.31, 6.32, 6.32, -0.0, -0.0, -0.0, -0.0, 4.0, 7.15, 9.11, 9.83, 11.18, 8.22, 7.44, 5.98, 7.4, 8.6, 10.65, 12.33, 15.36, 14.9, 9.3, 8.37, 9.09, 9.86, 10.87, 10.87, 9.62, 8.85, 9.84, 10.37, 11.16, 11.99, 11.99, 12.04, 10.99, 8.01, 6.21, 6.63, 6.94, 8.61, 8.85, 10.24, 11.75, 13.35, 13.91, 14.25, 12.93, 12.07, 11.71, 12.01, 13.41, -11.06, -11.16, -8.18, -6.95, -5.36, -4.37, -5.03, -4.0, 0.0, 3.8, 5.94, 10.24, 12.52, 11.25, 10.24, 8.6, 9.1, 9.33, 9.11, 8.48, -0.0, -0.0, -0.0, -0.0, -0.0, -0.0, -0.0, -0.0, -4.66, -6.2, -0.0, -0.0, -0.0, 11.18, -10.73, -11.62, -11.62, 12.07, 0.0, -12.07, -12.52, 10.73, -0.0, -0.0, 2.6, 5.0, 5.9, 6.64, 6.64, 5.1, -0.0, -2.39, -0.0, 6.45, 10.0, 10.96, 10.96, 12.96, 13.42, 11.0, 13.59, 12.33, 14.11, 13.15, 12.96, 10.35, 8.93, 9.09, 9.46, 9.82, 10.41, 10.41, 10.41, 9.62, 9.5, 10.37, 10.79, 11.99, 12.21, 12.21, 11.85, 9.17, 4.93, 5.4, 5.6, 6.44, 7.18, 8.37, 9.48, 11.64, 13.43, 15.1, 15.35, 14.86, 12.52, 10.0, 9.08, 10.79, 0.0, -10.65, -8.0, -6.64, -5.1, -5.31, -5.84, -4.37, 1.26, 4.96, 8.46, 10.81, 10.86, 10.55, 8.97, 9.6, 6.64, 9.11, 8.89, 8.56, -0.0, -0.0, -0.0, -0.0, -0.0, -0.0, -0.0, -0.0, -0.0, -0.0, -0.0, 10.28, 11.18, 10.73, -11.18, -11.18, -8.22, 0.0, 5.4, 0.0, -8.85, 12.07, 13.41, 9.17, 8.53, 8.53, 8.22, 8.94, 8.58, 7.59, 5.63, 2.28, -0.0, 10.8, 13.41, 13.41, 12.96, 13.86, 17.2, 10.41, 5.09, 14.3, 12.27, 11.87, 11.2, 9.62, 8.53, 9.16, 9.82, 10.04, 9.08, 9.42, 9.27, 9.62, 10.55, 11.33, 11.85, 11.85, 12.6, 12.72, 11.26, 4.65, 2.93, 4.9, 5.6, 7.18, 7.68, 8.61, 9.97, 11.66, 13.35, 14.58, 14.42, 15.77, 15.38, 13.72, 3.98, 0.0, 0.0, -8.53, -6.64, -4.44, -3.17, -4.22, -4.26, -0.85, 3.78, 8.37, 10.04, 10.12, 9.48, 9.3, 9.67, -2.06, -0.0, 9.39, 8.63, 9.49, -0.0, -0.0, -0.0, -0.0, -0.0, -0.0, -0.0, -0.0, -0.0, -0.0, 12.07, 9.83, 10.73, 10.73, -12.07, -11.18, 0.0, 0.0, 6.94, 5.6, 0.0, 0.0, 0.0, 7.0, 15.2, 14.75, 15.2, 13.88, 12.58, 7.59, 4.8, 4.83, 5.46, 9.33, 11.62, 13.86, 14.3, 13.86, 13.86, 13.41, -14.3, -12.96, 13.41, 11.16, 10.43, 8.3, 7.51, 8.24, 8.53, 9.77, 9.42, 9.08, 10.41, 10.87, 11.5, 12.58, 12.58, 12.58, 12.75, 12.71, 10.01, -0.0, 3.19, 5.4, 5.4, 7.51, 8.83, 9.84, 11.33, 12.52, 13.23, 13.29, 13.4, 15.61, 16.22, 16.37, 11.53, -2.49, 0.0, 3.11, -3.14, -2.44, -2.7, -3.11, -0.97, 1.54, 6.31, 8.72, 9.31, 8.76, 7.82, 6.94, -2.69, -2.06, 8.0, 8.48, 9.08, 9.6, -0.0, -0.0, -0.0, -0.0, -0.0, -0.0, -0.0, -0.0, -0.0, -0.0, 11.18, 9.83, 10.28, 11.18, 12.52, -11.18, 0.0, 9.17, 9.17, 12.72, 13.41, 13.41, 6.0, 3.79, 6.8, 10.75, 11.06, 14.39, 14.75, 6.0, 8.53, 10.04, 10.41, 12.14, 11.18, 12.35, 12.3, 11.18, 11.62, 11.62, -12.96, -13.86, -16.09, 16.99, -0.0, 3.47, 5.2, 7.41, 8.53, 9.96, 9.3, 10.35, 10.41, 11.5, 12.04, 12.39, 12.07, 12.07, 12.07, 12.07, 6.45, -0.0, 2.19, 5.2, 7.54, 10.65, 12.39, 12.58, 12.07, 12.47, 12.94, 13.38, 13.86, 14.3, 15.18, 15.09, 14.66, 12.52, 10.01, 8.31, 5.49, -1.98, -1.5, -0.82, 0.86, 3.87, 6.36, 8.56, 8.76, 8.02, 7.9, -2.4, -1.84, -0.0, 8.24, 7.6, 8.63, 8.67, -0.0, -0.0, -0.0, -0.0, -0.0, -0.0, -0.0, -0.0, -0.0, 9.17, 11.62, 11.62, 12.96, 12.96, 0.0, 0.0, 0.0, 6.0, 6.0, 11.99, 13.41, 13.41, 13.86, 10.12, 5.8, 6.2, 3.11, 0.0, 15.65, 14.3, 13.86, 15.2, 15.2, 13.86, 12.52, 11.62, 10.0, 10.0, 10.08, 10.28, -12.96, -14.75, -14.75, -12.52, -8.22, -0.0, 3.04, 8.1, 8.85, 8.85, 10.3, 9.42, 10.04, 11.09, 11.61, 11.62, 11.62, 11.53, 11.51, 11.62, 3.53, 2.6, 2.49, 6.97, 11.09, 12.79, 13.44, 12.96, 11.3, 11.64, 12.48, 13.39, 14.28, 14.73, 14.3, 13.41, 11.62, 12.07, 13.82, 15.27, 11.7, -1.58, -0.82, 0.0, 1.56, 3.91, 5.99, 7.82, 7.59, 7.68, 6.4, 1.98, 3.0, 8.05, 7.6, 7.42, 8.3, 7.69, -0.0, -0.0, -0.0, -0.0, -0.0, -0.0, -0.0, -0.0, 10.12, 12.96, 12.52, 12.96, 12.07, 13.41, 9.8, 0.0, 0.0, 0.0, 0.0, 0.0, 0.0, 4.1, 9.8, 10.12, 6.4, 5.2, 2.97, 0.0, 0.0, 11.9, 13.19, 13.76, 15.65, 13.86, 12.07, 11.18, 10.52, 8.91, 11.62, 12.96, -9.17, -12.3, -11.62, -10.28, -0.0, -0.0, 2.82, 7.24, 8.3, 8.54, 8.24, 8.53, 8.75, 9.86, 10.68, 11.18, 11.62, 11.46, 10.4, 11.03, 3.53, 2.49, 3.19, 7.69, 10.12, 11.53, 13.15, 12.96, 10.8, 9.67, 11.39, 12.72, 13.92, 14.5, 14.19, 12.83, 11.28, 11.28, 11.86, 15.11, 16.66, 10.33, 0.0, 0.0, 1.6, 3.21, 4.92, 6.42, 7.74, 7.15, 7.6, 8.49, 6.51, 6.8, 7.28, 7.81, 8.42, 7.41, -0.0, -0.0, -0.0, -0.0, -0.0, -0.0, -0.0, 10.43, 10.12, 13.41, 12.96, 13.86, 13.86, 13.86, 14.3, 10.12, 7.0, 4.95, 3.39, 3.33, 0.0, 3.42, 6.31, 6.6, 4.66, 4.1, 3.25, 4.6, 5.8, 11.53, 10.79, 11.6, 12.07, 11.18, 5.0, 11.71, 11.62, 11.62, 12.07, 13.86, 0.0, 13.41, 11.62, 11.18, 4.8, 2.49, 2.1, 4.15, 5.75, 5.54, 5.2, 6.48, 7.64, 7.36, 6.7, 7.42, 8.69, 11.21, 8.53, -0.0, -0.0, 2.71, 5.15, 5.99, 6.6, 8.46, 10.12, 11.75, 12.52, 10.04, 10.94, 11.97, 13.35, 13.35, 12.93, 13.05, 11.6, 10.04, 10.99, 12.72, 14.75, 14.39, 6.8, 2.54, 2.83, 1.96, 4.12, 5.63, 6.95, 6.01, 6.01, 8.03, 6.63, 4.74, 7.28, 8.42, 8.42, 6.01, -0.0, -0.0, -0.0, -0.0, -0.0, -0.0, -0.0, 10.43, 10.12, 13.41, 13.41, 13.86, 14.75, 14.3, 13.41, 12.27, 11.2, 11.52, 12.36, 12.01, 12.71, 14.39, 14.53, 15.27, 13.41, 12.96, 12.52, 8.05, 11.18, 10.28, 10.73, 11.62, 11.62, 9.83, 7.59, 9.2, 10.28, -0.0, -12.52, 13.41, 13.86, -0.0, 8.53, 5.0, -0.0, -0.0, -0.0, -0.0, 1.76, 1.52, 2.33, 4.81, 5.51, 5.4, 5.4, 6.21, 7.69, 8.85, 10.01, -3.25, -0.79, 2.72, 4.66, 2.64, 2.09, 4.53, 7.32, 7.82, 8.66, 10.91, 12.3, 12.31, 12.96, 12.58, 10.99, 11.16, 10.37, 9.5, 9.36, 11.31, 13.15, 13.23, 8.85, 8.18, 7.59, 5.63, 4.44, 4.66, 4.6, 5.36, 5.46, 6.24, 4.94, 5.37, 7.76, 9.3, 7.87, 5.37, -0.0, 9.8, 6.4, -0.0, -0.0, -0.0, 10.43, 10.12, 10.12, 13.86, 13.86, 14.3, 14.75, 15.2, 15.65, 15.2, 14.11, 12.72, 12.46, 13.09, 13.15, 13.41, 13.36, 13.23, 13.23, 13.25, 13.25, 13.07, 11.64, 9.76, 10.73, 11.62, 11.62, 11.18, 10.28, -0.0, -7.27, -10.0, -11.62, -12.07, -0.0, -0.0, -0.0, -0.0, -0.0, -2.17, -2.39, -2.49, -0.0, -0.0, -0.0, 1.47, 2.97, 2.7, 4.32, 5.4, 6.63, 11.06, 10.2, -0.0, -2.93, 2.04, 2.11, -0.0, -0.0, 0.89, 3.75, 6.17, 7.01, 8.72, 9.89, 10.51, 10.29, 10.5, 12.07, 10.73, 10.37, 8.53, 8.85, 9.66, 8.93, 11.4, 10.73, 8.05, 8.85, 10.01, 7.59, 5.9, 6.95, 6.79, 6.32, 4.96, 3.77, 5.1, 7.97, 9.66, 8.93, 7.15, 9.8, 9.8, 9.8, 6.4, 10.43, 10.12, 10.12, 10.12, 12.79, 14.3, 14.3, 14.3, 14.75, 15.2, 16.09, 16.09, 15.87, 15.05, 14.31, 13.96, 14.25, 14.3, 14.75, 15.61, 15.61, 15.51, 14.18, 14.18, 13.72, 12.92, 11.62, 11.62, 12.07, 7.59, 10.28, -0.0, -0.0, -0.0, -0.0, -0.0, 11.62, -0.0, -0.0, -0.0, -0.0, -2.39, -2.54, -4.4, -4.8, -3.39, -0.0, -0.0, 13.41, 13.86, 12.52, 11.62, -0.0, 10.8, 13.2, 3.11, -4.48, -0.0, -0.0, -1.29, -1.98, -1.98, -0.0, 2.71, 5.8, 7.51, 9.31, 10.81, 11.53, 10.4, 9.42, 10.96, 7.59, 9.2, 9.83, 9.33, 5.46, 7.27, 10.87, 10.12, 5.6, 10.47, 11.12, 9.6, 8.67, 7.45, 8.72, 6.08, 3.97, 5.1, 7.59, 9.08, 8.8, 7.21, 9.8, 9.8, 9.8, 10.12, 10.12, 10.12, 10.12, 10.12, 12.79, 14.3, 14.3, 14.75, 14.75, 15.2, 15.78, 16.22, 16.31, 16.37, 15.97, 15.55, 15.12, 15.15, 15.65, 16.09, 16.09, 16.5, 16.06, 15.51, 15.07, 14.71, 13.86, 12.42, 11.45, 9.6, 10.28, 9.83, 7.27, 4.2, 7.9, 10.28, 10.73, 11.62, 10.73, -0.0, -0.0, -2.83, -2.83, -3.8, -6.32, -6.95, -0.0, 10.28, 0.0, 8.49, 8.49, -5.69, -3.8, 9.54, 12.33, 8.01, -3.07, -5.2, -5.0, -5.0, -5.0, -4.8, -5.0, -0.0, 3.98, 7.44, 8.64, 10.29, 12.04, 10.45, 10.22, 7.68, 5.7, 7.27, 9.2, 11.18, 7.9, 5.75, 7.59, 6.87, 5.1, 7.82, 10.73, 10.0, 9.11, 8.72, 9.33, 7.28, 4.47, 4.87, 6.01, 7.07, 7.2, 7.2, 12.39, 12.39, 12.39, 12.79, 12.79, 10.12, 10.12, 12.79, 12.79, 14.3, 14.75, 14.75, 14.75, 15.2, 15.34, 15.78, 16.31, 16.82, 16.86, 16.44, 16.01, 16.09, 16.09, 16.54, 16.54, 16.54, 16.54, 16.09, 15.62, 15.2, 15.2, 15.12, 13.44, 11.03, 10.28, 8.94, 8.8, 6.95, 10.0, 10.73, 10.28, 10.73, 10.73, -0.0, -0.0, -2.69, -2.69, -3.6, -0.0, -0.0, 8.49, 8.49, 8.49, 8.49, 8.05, 8.05, 2.69, 6.95, 11.62, 8.22, -0.0, -4.8, -7.27, -6.95, -8.4, -8.91, -7.6, -2.39, 2.02, 6.87, 8.63, 10.63, 12.52, 11.49, 11.18, 5.0, 6.21, 9.57, 11.17, 11.53, 12.3, 12.52, 9.66, 5.98, 3.39, 2.58, 5.29, 5.9, 6.32, 6.98, 8.15, 5.06, 4.56, 6.18, 6.73, 7.28, 6.01, 6.01, 12.39, 12.39, 12.79, 12.39, 12.39, 12.79, 12.79, 13.19, 12.79, 14.3, 14.75, 14.75, 15.2, 15.2, 15.34, 15.34, 15.43, 16.37, 16.86, 16.88, 16.46, 16.03, 16.09, 16.09, 16.09, 16.09, 16.09, 16.09, 16.09, 16.54, 16.94, 16.71, 15.27, 13.88, 8.67, 8.94, 9.39, 10.73, 10.28, 10.28, 7.59, 8.94, 9.83, -0.0, -0.0, -0.0, -0.0, -0.0, -0.0, -0.0, -0.0, -0.0, -0.0, 6.64, 6.64, 8.4, 9.83, 10.28, 5.0, 5.2, 5.0, -0.0, -0.0, -4.2, -6.64, -8.05, -8.94, -7.6, 2.97, 9.45, 12.47, 11.75, 11.92, 10.4, 9.67, 1.43, 6.18, 10.11, 12.29, 12.5, 12.27, 12.39, 13.09, 12.27, 2.82, 0.0, 2.69, 3.8, 4.71, 6.01, 7.21, 5.69, 5.37, 6.01, 7.74, 6.64, 6.01, 6.01, 13.15, 13.15, 13.57, 13.57, 13.15, 13.15, 12.79, 13.57, 13.99, 14.75, 14.75, 15.2, 15.2, 15.2, 15.2, 14.99, 15.43, 15.87, 16.37, 16.41, 15.99, 16.01, 15.58, 15.2, 15.59, 16.09, 16.54, 16.54, 16.5, 17.39, 17.38, 17.59, 16.96, 15.07, 11.5, 7.6, 7.44, 9.2, 9.6, 7.27, 4.4, 0.0, 8.49, 8.49, -0.0, -0.0, -0.0, -0.0, -0.0, -0.0, 4.2, 4.4, 4.4, 4.4, 4.4, 8.8, 4.4, 4.6, 4.8, 7.9, 10.0, 9.2, -0.0, -2.97, -2.97, -2.69, -5.69, -3.8, 2.39, 10.0, 14.86, 13.21, 12.51, 14.75, 5.98, 3.9, 8.97, 12.76, 14.03, 13.99, 13.56, 13.47, 13.55, 11.62, 0.0, 0.0, 0.0, 2.33, 4.21, 5.1, 6.95, 6.01, 5.37, 5.82, 6.77, 6.4, 5.46, 5.46, 13.44, 13.44, 13.15, 13.57, 13.15, 13.15, 13.57, 13.57, 13.99, 14.75, 14.75, 15.2, 15.65, 15.65, 15.2, 16.99, 14.55, 15.43, 15.65, 15.2, 15.55, 15.78, 15.27, 16.37, 15.2, 16.54, 13.79, 16.86, 17.3, 16.03, 17.43, 17.79, 17.46, 16.32, 14.65, 11.2, 8.54, 7.64, 7.87, 7.9, 5.7, 7.27, 10.28, 9.83, 4.4, 4.4, 4.4, 4.2, 4.2, 4.2, 4.4, 4.4, 4.4, 3.11, 3.11, 7.27, 6.95, 7.59, 10.6, 10.6, 10.73, 10.28, -0.0, -2.69, -5.36, -5.1, -2.69, 0.0, 4.88, 9.16, 13.67, 15.56, 18.16, 18.35, 17.22, 15.69, 15.65, 15.15, 15.54, 15.55, 14.3, 14.3, 13.82, 12.14, 2.82, 0.0, 0.0, 4.15, 4.23, 2.95, 3.65, 5.21, 5.82, 4.96, 5.9, 5.72, 5.7, 5.7, 13.44, 13.44, 13.44, 13.44, 13.44, 13.44, 13.88, 13.88, 14.75, 14.75, 14.75, 15.2, 15.65, 15.65, 15.65, 14.99, 14.55, 14.55, 15.65, 14.99, 16.82, 15.07, 14.79, 16.54, 15.2, 15.9, 16.37, 15.99, 16.9, 16.99, 17.43, 17.43, 17.43, 17.33, 16.58, 14.42, 12.3, 10.62, 9.75, 7.95, 8.6, 9.26, 9.39, 9.03, 8.0, 8.93, 6.95, 6.95, 4.2, 4.2, 4.2, 4.2, 2.97, 2.97, 2.17, 4.2, 7.59, 8.18, 9.75, 10.73, 10.28, 9.83, 9.83, -4.2, -6.01, -6.01, -4.96, -0.0, 10.28, 11.62, 12.82, 15.0, 18.58, 19.69, 18.78, 16.41, 13.39, 12.02, 15.01, 14.99, 15.09, 15.09, 14.47, 12.89, 0.0, -3.53, 0.0, 9.2, 4.15, 2.1, 2.6, 5.2, 5.98, 4.78, 3.81, 5.1, 5.7, 5.7, 13.59, 13.59, 13.59, 13.59, 13.44, 13.44, 13.44, 14.3, 14.75, 15.2, 14.75, 15.2, 15.65, 15.65, 15.65, 15.43, 14.55, 14.55, 12.3, 14.42, 16.76, 15.9, 15.9, 15.07, 15.77, 16.27, 15.83, 16.92, 17.43, 17.88, 17.81, 17.36, 17.43, 17.43, 16.99, 16.46, 14.47, 12.71, 11.57, 10.23, 9.34, 9.83, 9.83, 9.77, 9.16, 9.6, 8.8, 8.18, 6.64, 6.64, -0.0, -0.0, -0.0, -0.0, 3.11, 4.0, 7.27, 7.27, 10.18, 9.33, 8.8, 6.95, 9.83, -8.8, -8.0, -8.0, -6.64, -0.0, 6.44, 7.56, 8.67, 12.65, 17.26, 19.69, 18.69, 14.64, 10.08, 10.71, 11.79, 13.42, 15.01, 15.43, 15.17, 14.25, 11.99, -8.22, 10.73, 9.83, 10.28, 7.27, 3.7, 5.6, 5.6, 3.11, 2.97, 4.2, 4.83, 4.83, 13.67, 13.67, 13.67, 13.59, 13.59, 13.59, 13.86, 14.3, 14.75, 15.2, 15.2, 15.2, 15.2, 15.65, 15.65, 15.43, 14.99, 14.18, 14.18, 16.05, 16.88, 16.41, 15.97, 15.71, 16.27, 17.59, 17.15, 16.47, 16.54, 16.99, 17.43, 17.37, 17.37, 17.37, 16.99, 16.99, 15.65, 13.86, 12.52, 11.18, 10.28, 9.83, 9.39, 9.34, 8.89, 7.85, 9.97, 9.33, 8.4, 6.32, -0.0, -0.0, -0.0, -0.0, 2.83, 3.11, 3.65, 4.8, 5.95, 6.95, 0.0, -6.64, -9.39, -8.91, -8.4, -6.64, -6.64, -3.11, -0.0, -0.0, 2.93, 9.22, 15.13, 17.64, 8.02, 6.4, 8.56, 8.78, 8.97, 9.5, 11.95, 13.91, 15.09, 14.3, 13.86, 11.03, 7.27, 9.11, 8.79, 9.7, 7.9, 5.77, 5.2, 4.0, 3.8, 3.8, 4.0, 4.0, 13.67, 13.67, 13.67, 13.67, 13.67, 13.59, 14.3, 14.3, 14.75, 15.2, 15.2, 15.2, 15.65, 15.65, 15.65, 15.43, 14.99, 14.6, 14.61, 16.05, 16.88, 15.99, 15.11, 14.84, 16.22, 17.15, 17.59, 17.36, 16.99, 16.09, 16.54, 16.54, 16.54, 16.54, 16.54, 16.54, 16.09, 14.75, 12.96, 11.62, 10.73, 10.28, 9.83, 8.9, 8.01, 7.42, 9.64, 9.39, 8.94, 6.01, 5.69, -0.0, -0.0, -0.0, 4.0, -0.0, -0.0, 2.02, 4.8, 6.32, -4.0, -6.32, -9.39, -8.0, -6.32, -5.21, -2.97, -0.0, -0.0, -4.2, -6.2, 3.96, 18.26, 16.66, 0.0, 0.0, 3.83, 6.52, 7.5, 8.09, 8.76, 10.92, 12.39, 13.32, 13.67, 11.61, 8.23, 6.64, 8.42, 9.67, 9.5, 6.2, 10.28, 8.94, 8.49, 6.01, 5.1, 5.1, 13.32, 13.32, 13.32, 13.72, 13.67, 13.67, 13.86, 14.3, 14.75, 15.2, 15.2, 15.65, 15.65, 15.65, 15.65, 15.43, 15.49, 14.6, 15.49, 15.61, 16.41, 16.88, 15.99, 14.68, 14.9, 16.27, 17.15, 17.36, 17.36, 16.99, 16.09, 16.09, 16.09, 16.09, 16.09, 16.09, 16.09, 15.2, 13.41, 11.62, 10.28, 9.83, 10.28, 10.23, 8.9, 7.55, 9.83, 9.39, 8.94, 8.0, 8.0, 6.01, 6.01, -0.0, -0.0, -0.0, -0.0, -0.0, 5.7, 8.55, 0.0, -2.69, -3.8, -6.01, -4.96, -4.2, -0.0, -0.0, -0.0, -3.11, -9.2, 14.13, 17.86, 18.59, 16.91, 0.0, 0.0, 3.6, 4.66, 5.17, 6.6, 8.1, 10.18, 10.91, 11.2, 9.67, 7.59, 6.04, 6.64, 8.91, 7.81, 9.39, 9.39, 8.94, 8.24, 6.79, 6.32, 6.32, 13.32, 13.32, 13.32, 13.72, 13.72, 13.67, 13.86, 14.3, 14.75, 15.2, 15.2, 15.2, 15.65, 15.65, 15.65, 15.65, 15.49, 15.05, 15.05, 15.97, 15.97, 16.86, 16.88, 16.44, 15.57, 15.39, 16.92, 17.36, 17.36, 16.99, 16.99, 16.54, 15.65, 15.65, 16.09, 16.09, 16.09, 15.65, 14.3, 12.07, 10.28, 9.83, 9.83, 10.28, 9.79, 9.34, 8.01, 8.44, 8.87, 9.32, 8.85, 10.28, 7.6, 5.69, 6.01, -0.0, -0.0, -0.0, 8.94, 9.39, 9.83, 4.71, 0.0, -6.64, -2.97, -2.28, -1.84, -0.0, -0.0, 0.0, 3.53, 10.94, 16.5, 17.72, 18.6, 18.52, 18.33, 6.31, 5.18, 4.06, 5.1, 7.38, 9.12, 10.34, 9.97, 8.94, 7.81, 5.59, 4.0, -0.0, -0.0, -0.0, 9.83, 9.39, 8.77, 8.3, 7.67, 7.67, 13.32, 13.32, 13.32, 13.72, 13.72, 13.72, 13.67, 14.3, 14.75, 14.75, 15.2, 15.2, 15.65, 15.65, 15.65, 15.65, 15.49, 15.49, 15.49, 15.49, 15.53, 15.97, 16.88, 16.88, 16.46, 16.01, 16.01, 16.9, 17.35, 17.35, 16.99, 16.99, 16.54, 16.54, 16.09, 16.09, 16.09, 16.09, 15.65, 13.41, 11.18, 10.28, 9.83, 9.83, 10.28, 10.23, 9.79, 8.45, 8.77, 9.34, 9.33, 8.49, 9.83, 8.49, 7.6, 6.01, -0.0, 8.05, 8.05, 8.0, 9.83, 9.97, 7.44, 9.39, -2.97, -2.17, -2.02, -2.1, -0.0, 0.0, 4.8, 10.79, 13.28, 16.97, 18.11, 18.45, 18.93, 18.73, 7.82, 3.68, 4.71, 5.9, 8.26, 8.84, 8.07, 8.15, 8.15, 7.6, -0.0, -0.0, 6.64, 9.75, 10.41, 9.2, 9.13, 8.72, 8.72, 8.72, 13.44, 13.44, 13.32, 13.72, 13.72, 13.72, 13.72, 13.86, 14.3, 14.75, 15.2, 15.2, 15.65, 15.2, 15.65, 15.65, 15.65, 15.49, 15.49, 15.49, 15.53, 15.53, 15.97, 16.44, 16.44, 16.46, 16.01, 16.46, 16.9, 16.9, 16.99, 16.99, 16.99, 16.99, 16.54, 16.54, 16.54, 16.54, 16.54, 15.65, 13.86, 12.07, 10.73, 9.83, 10.28, 10.28, 10.23, 9.34, 8.9, 8.9, 8.94, 8.94, 8.05, 7.6, 8.05, 7.6, 8.05, 7.6, 7.15, 0.0, 8.4, 9.21, 10.41, 8.94, -0.0, -0.0, -0.0, -0.0, -0.0, 10.28, 6.2, 9.67, 11.62, 13.86, 14.08, 15.24, 19.51, 18.08, 12.11, 1.77, 3.04, 5.35, 6.4, 7.01, 6.84, 7.42, 7.87, 7.6, 7.6, 6.32, 8.94, 9.2, 10.4, 9.3, 8.94, 9.2, 9.2, 9.2, 13.44, 13.44, 13.32, 13.32, 13.72, 13.72, 13.72, 13.86, 14.3, 14.3, 14.75, 15.2, 15.2, 15.2, 15.2, 15.2, 15.65, 15.65, 15.65, 15.49, 15.53, 15.53, 15.53, 15.55, 15.99, 15.99, 16.01, 15.99, 16.44, 16.54, 16.54, 16.54, 16.99, 16.99, 16.99, 16.54, 16.54, 16.99, 16.99, 16.09, 14.75, 12.96, 11.18, 9.83, 10.22, 9.77, 10.28, 9.83, 8.94, 8.94, 8.94, 8.49, 8.49, 7.6, 7.15, 7.6, 7.6, 7.6, 7.15, -7.6, 0.0, 8.0, 9.64, 9.11, 2.97, -0.0, -0.0, -0.0, 9.83, 7.27, 10.6, 10.8, 11.2, 10.87, 12.71, 14.28, 17.43, 16.92, 13.86, 0.0, 1.63, 4.89, 6.29, 6.31, 6.08, 7.1, 6.17, 6.79, 9.11, 9.54, 8.23, 8.94, 11.21, 10.73, 10.01, 10.35, 9.97, 9.97, 12.74, 12.74, 13.32, 13.32, 13.72, 13.72, 13.72, 14.16, 14.3, 14.3, 14.75, 15.2, 15.65, 15.65, 15.65, 15.2, 15.2, 15.2, 15.2, 15.05, 15.53, 15.53, 15.53, 15.55, 15.55, 15.55, 15.55, 15.99, 16.54, 16.54, 16.54, 16.54, 16.54, 16.54, 16.54, 16.54, 16.54, 16.99, 16.99, 16.54, 15.65, 13.41, 11.62, 9.83, 9.26, 9.76, 10.73, 11.55, 11.53, 9.39, 8.94, 8.94, 8.49, 7.97, 6.64, 6.36, 7.21, 7.6, 7.15, -7.6, 0.0, 7.44, 9.11, 9.39, -0.0, -0.0, 2.1, 5.7, 9.83, 7.27, 10.6, 12.14, 11.99, 10.23, 10.12, 13.23, 15.03, 14.7, 13.86, 5.4, 0.0, 4.24, 6.8, 7.17, 6.48, 6.44, 6.14, 6.17, 7.59, 8.73, 7.9, 8.22, 9.42, 11.12, 11.5, 11.12, 10.35, 10.35, 12.74, 12.74, 13.32, 13.32, 13.72, 13.72, 13.72, 14.16, 14.3, 14.3, 14.3, 15.2, 15.2, 15.65, 16.09, 15.65, 15.2, 15.2, 15.2, 15.2, 15.53, 15.53, 15.65, 15.53, 15.55, 15.55, 15.11, 15.65, 16.09, 16.09, 16.09, 16.09, 16.09, 16.09, 16.54, 16.54, 16.54, 16.54, 16.99, 16.99, 16.09, 14.3, 12.52, 9.83, 8.05, 9.83, 12.07, 13.31, 13.28, 12.39, 11.09, 8.87, 8.41, 7.52, 6.45, 6.0, 6.4, 6.64, 5.37, 0.0, 0.0, 6.32, 8.06, 9.39, -2.97, -2.28, -0.0, 5.95, 9.39, 8.18, 7.9, 11.3, 12.93, 13.39, 12.26, 13.41, 13.76, 13.1, 13.82, 13.67, 4.98, 4.1, 5.96, 7.17, 7.19, 7.79, 9.48, 7.78, 7.82, 8.85, 9.66, 11.2, 11.62, 11.12, 11.6, 11.6, 11.87, 11.87, 12.33, 12.33, 13.32, 13.32, 13.32, 13.72, 13.72, 14.16, 14.16, 14.75, 14.75, 14.3, 15.2, 15.2, 15.65, 15.65, 15.65, 15.65, 15.65, 15.65, 15.65, 15.65, 15.65, 15.65, 15.65, 15.65, 15.2, 14.75, 15.2, 15.65, 16.09, 15.65, 15.65, 15.65, 16.09, 16.09, 16.54, 16.54, 16.54, 16.99, 16.54, 15.2, 12.96, 10.73, 8.87, 10.14, 12.83, 14.19, 14.11, 13.28, 11.51, 9.32, 6.64, 6.64, 5.59, 4.8, 5.95, 6.32, 6.52, 5.06, 3.2, 6.01, 6.01, -8.94, -4.96, -3.8, -3.8, 9.83, 10.28, 9.55, 5.9, 8.93, 12.52, 14.75, 17.26, 16.06, 14.76, 11.87, 12.42, 15.04, 14.36, 5.81, 6.09, 8.06, 9.25, 10.87, 11.06, 11.87, 11.09, 11.6, 12.58, 12.96, 12.71, 12.35, 12.79, 12.96, 12.52, 12.52, 12.33, 12.33, 12.89, 13.32, 13.32, 13.72, 13.72, 14.16, 14.16, 14.6, 14.75, 14.75, 14.75, 15.65, 15.65, 15.65, 15.65, 16.09, 16.09, 16.09, 16.09, 16.09, 15.65, 15.65, 15.65, 15.65, 15.2, 14.3, 16.09, 14.75, 15.65, 16.09, 16.09, 15.65, 15.65, 16.09, 16.09, 16.54, 16.54, 16.54, 16.54, 15.65, 13.86, 11.18, 10.22, 10.91, 12.66, 14.64, 13.86, 12.39, 10.2, 7.98, 7.1, 6.65, 5.75, 4.73, 4.93, 6.21, 6.6, 5.95, 4.74, 5.37, -6.01, -7.6, -4.96, -2.69, -5.69, 6.64, 9.2, 9.96, 9.33, 10.28, 11.2, 15.2, 20.12, 21.07, 14.11, 9.26, 10.03, 13.89, 16.02, 15.19, 10.33, 10.77, 11.7, 12.19, 12.57, 13.01, 12.27, 12.71, 12.52, 11.2, 11.2, 11.62, 12.35, 12.39, 11.71, 11.71, 12.33, 12.33, 12.89, 13.32, 13.32, 13.75, 13.72, 14.16, 14.16, 14.6, 14.6, 14.75, 14.75, 14.75, 15.65, 15.65, 15.65, 15.65, 15.65, 16.09, 16.09, 16.09, 16.09, 15.65, 15.2, 15.2, 15.2, 14.3, 13.75, 15.65, 14.75, 15.65, 16.09, 16.09, 16.09, 16.09, 16.09, 16.54, 16.54, 16.54, 16.54, 16.09, 14.3, 12.07, 10.66, 11.55, 12.88, 13.77, 13.75, 11.53, 9.33, 8.89, 8.89, 7.98, 7.1, 6.07, 5.64, 4.93, 5.75, 5.86, 5.34, 5.37, 8.94, -0.0, -3.8, -2.54, -0.0, 8.49, 8.18, 10.18, 7.27, -0.0, 0.0, 12.5, 19.07, 25.43, 14.08, 2.37, 4.48, 11.38, 14.21, 15.82, 15.78, 15.9, 15.68, 16.24, 16.24, 14.79, 13.57, 12.79, 12.52, 10.8, 10.8, 11.62, 12.04, 12.04, 11.28, 11.28, 12.56, 12.56, 12.56, 13.01, 13.44, 13.44, 13.75, 14.19, 14.19, 14.6, 14.6, 15.05, 14.75, 14.75, 15.2, 15.65, 15.65, 15.65, 15.65, 16.09, 16.09, 16.54, 16.09, 16.09, 15.2, 15.2, 15.2, 14.64, 14.64, 14.75, 14.75, 15.2, 15.65, 15.65, 16.09, 16.09, 16.09, 16.09, 16.54, 16.54, 16.54, 16.54, 15.2, 12.96, 11.55, 11.55, 12.44, 13.77, 13.77, 12.0, 9.77, 9.33, 9.33, 8.89, 7.85, 6.94, 6.51, 6.21, 5.2, 5.64, 7.37, 8.05, 8.05, -0.0, -0.0, -5.37, -5.69, -5.69, 9.39, 10.28, 4.4, 8.22, 11.45, 10.47, 16.31, 23.57, 19.2, 14.3, 0.0, 11.53, 13.77, 15.18, 16.26, 16.61, 16.79, 17.17, 17.64, 15.85, 13.79, 12.52, 11.91, 10.8, 11.09, 11.71, 11.98, 11.71, 11.98, 11.98, 12.56, 12.56, 12.56, 13.01, 13.44, 13.44, 13.44, 14.19, 14.64, 14.64, 15.05, 15.05, 15.05, 14.75, 14.6, 15.2, 15.2, 15.2, 15.2, 15.65, 16.09, 16.09, 16.09, 16.09, 15.65, 15.2, 15.2, 14.75, 14.75, 15.2, 15.2, 15.2, 15.2, 15.2, 15.65, 15.65, 16.09, 16.09, 16.54, 16.54, 16.54, 16.09, 15.2, 13.41, 12.07, 11.55, 12.44, 13.33, 13.33, 12.88, 10.66, 10.22, 9.33, 8.89, 8.29, 7.37, 6.94, 6.51, 6.21, 5.32, 4.87, 8.05, 8.05, 5.69, -0.0, -6.01, -6.8, -8.06, -8.94, -9.39, -0.0, 10.4, 12.96, 12.33, 14.3, 17.72, 19.4, 18.05, 15.82, 15.46, 13.97, 14.2, 15.49, 15.79, 15.95, 16.01, 16.02, 14.3, 12.52, 11.88, 11.13, 10.6, 11.35, 11.4, 12.01, 12.01, 12.0, 12.0, 12.56, 12.56, 12.56, 12.56, 13.44, 13.44, 13.88, 13.88, 14.31, 14.64, 15.08, 15.08, 15.05, 14.6, 14.6, 15.05, 15.2, 15.2, 15.2, 15.65, 15.65, 16.09, 16.09, 16.09, 15.65, 15.2, 15.2, 14.75, 14.75, 15.2, 15.2, 15.2, 14.75, 14.75, 14.75, 15.2, 15.65, 15.65, 16.09, 16.09, 16.09, 16.09, 15.65, 13.41, 12.07, 11.57, 12.0, 12.66, 13.09, 12.58, 11.28, 10.2, 9.77, 9.16, 8.29, 7.81, 7.37, 6.94, 6.51, 5.77, 5.32, 5.31, 8.05, 7.6, -0.0, -6.32, -7.2, -8.49, -8.94, -8.94, -0.0, 4.6, 13.23, 13.41, 14.53, 15.09, 16.07, 18.06, 20.86, 21.44, 18.6, 13.42, 12.09, 13.07, 13.79, 13.41, 12.96, 12.07, 11.59, 11.14, 11.02, 11.02, 11.44, 11.57, 11.58, 12.07, 12.07, 12.07, 12.14, 12.14, 12.56, 12.56, 13.44, 13.44, 13.88, 13.88, 14.31, 14.31, 15.08, 15.08, 15.08, 15.05, 14.6, 14.6, 15.2, 15.2, 15.2, 15.65, 15.65, 15.65, 16.09, 16.09, 15.65, 15.2, 15.2, 14.75, 14.75, 15.2, 15.2, 15.2, 14.75, 14.75, 14.75, 14.75, 14.75, 15.2, 15.65, 16.09, 16.09, 16.09, 15.2, 12.96, 10.28, 10.73, 11.55, 12.22, 12.66, 12.58, 11.71, 10.84, 9.97, 9.6, 8.73, 7.81, 7.37, 7.37, 6.51, 6.07, 5.64, 5.16, 8.05, 7.6, 8.05, 8.94, -8.05, -8.49, -8.94, -0.0, -0.0, -0.0, 8.85, 14.51, 14.75, 13.92, 14.31, 16.22, 20.32, 22.6, 20.78, 14.25, 11.5, 10.37, 12.27, 12.52, 12.52, 11.18, 11.18, 11.18, 11.58, 11.58, 11.58, 12.07, 12.07, 11.62, 12.07, 12.07, 11.6, 11.6, 12.56, 12.56, 12.98, 13.44, 13.88, 13.88, 14.31, 14.31, 14.75, 14.75, 14.75, 15.08, 15.05, 14.6, 14.6, 15.2, 15.2, 15.65, 15.65, 15.65, 15.65, 16.09, 15.65, 15.2, 14.75, 14.75, 14.75, 14.75, 15.2, 14.75, 14.75, 14.75, 14.75, 14.75, 14.3, 15.2, 15.2, 15.65, 15.65, 16.09, 14.75, 12.07, 9.83, 10.73, 11.4, 12.22, 13.01, 12.58, 12.14, 11.28, 10.41, 9.54, 8.67, 8.24, 7.37, 7.37, 6.51, 6.07, 5.64, 5.16, 7.63, 7.15, 7.6, 8.49, 8.49, 8.05, 8.49, 8.49, -0.0, -0.0, 11.45, 13.83, 17.43, 15.18, 13.28, 14.39, 17.85, 19.91, 18.2, 15.18, 14.07, 12.45, 10.79, 12.71, 12.42, 11.62, 11.62, 11.62, 11.62, 11.62, 11.62, 12.07, 12.07, 12.07, 12.07, 12.07, 11.85, 11.85, 12.3, 12.56, 12.98, 12.98, 13.88, 13.88, 14.31, 14.31, 14.75, 14.75, 14.75, 14.75, 15.08, 14.64, 14.64, 14.64, 15.2, 15.2, 15.65, 15.65, 15.65, 15.65, 15.65, 15.2, 14.75, 14.75, 14.3, 14.3, 14.75, 14.75, 14.75, 14.75, 14.3, 14.75, 14.3, 14.3, 15.2, 15.2, 15.53, 15.53, 14.64, 11.95, 10.73, 12.01, 13.59, 13.88, 13.75, 13.32, 12.46, 11.61, 10.41, 9.97, 8.67, 8.24, 7.81, 7.37, 6.94, 6.51, 6.02, 5.59, 5.09, 8.05, 8.05, 8.05, 7.6, 8.05, 8.05, 8.49, -0.0, 8.94, 10.4, 12.96, 15.49, 16.22, 15.65, 14.75, 15.19, 14.77, 14.57, 14.73, 14.72, 14.03, 11.99, 11.6, 12.83, 12.07, 12.07, 12.07, 11.62, 11.62, 11.62, 12.07, 12.07, 12.07, 12.03, 12.07, 11.85, 11.85, 12.3, 12.56, 12.56, 12.98, 12.98, 13.88, 13.88, 14.31, 14.31, 14.31, 14.75, 14.75, 14.31, 14.64, 14.64, 14.64, 14.75, 15.2, 15.2, 15.2, 15.2, 15.65, 15.65, 15.65, 14.75, 14.3, 14.3, 14.3, 14.3, 14.75, 14.75, 14.75, 14.3, 14.3, 14.3, 13.86, 14.19, 14.64, 14.64, 15.08, 14.19, 12.04, 10.88, 12.46, 14.84, 15.04, 14.18, 13.75, 13.32, 12.04, 10.32, 9.54, 8.67, 8.24, 7.81, 7.37, 7.37, 6.57, 6.16, 5.34, 7.37, 6.79, 7.6, 8.05, 7.6, 8.49, 7.6, -0.0, -0.0, 0.0, 3.39, 9.3, 12.52, 15.04, 18.65, 19.2, 15.12, 9.66, 10.4, 12.44, 13.41, 12.96, 12.83, 12.27, 11.91, 12.07, 11.62, 11.62, 11.55, 11.57, 11.57, 12.02, 12.02, 12.02, 12.02, 12.02, 11.44, 11.44, 12.3, 12.3, 12.72, 12.56, 12.98, 13.39, 13.39, 13.88, 14.31, 14.31, 14.31, 14.31, 14.31, 14.31, 14.64, 14.64, 14.75, 14.75, 15.2, 15.2, 15.2, 15.2, 15.2, 15.2, 14.75, 14.3, 14.3, 13.86, 13.86, 13.86, 14.3, 14.3, 14.3, 13.86, 13.86, 13.31, 13.75, 14.19, 14.19, 14.19, 13.44, 12.14, 11.3, 12.72, 14.4, 15.08, 14.16, 13.32, 12.89, 11.61, 9.46, 9.03, 8.6, 8.17, 7.74, 7.81, 7.81, 6.99, 6.57, 6.16, 5.34, 7.21, 7.6, 7.6, 8.05, 8.05, -0.0, -0.0, 8.49, 0.0, 3.25, 6.95, 10.4, 13.34, 17.42, 22.13, 17.79, 11.84, 3.53, 11.4, 12.07, 12.52, 12.52, 12.07, 11.46, 11.46, 11.53, 11.55, 11.4, 11.44, 11.44, 11.84, 11.88, 11.88, 11.88, 11.88, 11.44, 11.44, 12.3, 12.3, 12.72, 12.72, 13.15, 12.98, 12.98, 13.39, 13.39, 14.31, 14.31, 14.31, 14.31, 14.31, 14.64, 14.64, 14.64, 14.75, 15.2, 15.2, 15.2, 15.2, 15.2, 15.2, 14.75, 14.3, 13.86, 13.86, 13.41, 13.41, 13.41, 13.86, 14.3, 13.41, 13.41, 13.31, 13.31, 13.31, 13.75, 13.75, 13.01, 11.71, 11.28, 12.58, 13.88, 14.19, 13.01, 12.14, 11.61, 10.84, 9.11, 9.11, 8.6, 8.6, 7.74, 7.74, 7.81, 7.74, 6.99, 7.12, 6.16, 7.37, 7.6, 7.6, 5.69, 5.69, -0.0, -0.0, 8.05, 0.0, 0.0, 4.6, 7.9, 9.89, 14.09, 18.71, 20.29, 17.05, 15.09, 15.34, 15.15, 13.86, 13.37, 12.92, 12.01, 11.78, 11.45, 11.56, 11.64, 11.21, 11.34, 11.76, 11.64, 11.64, 11.64, 11.64, 11.44, 11.44, 12.3, 12.3, 12.72, 12.72, 13.15, 13.15, 13.39, 13.39, 13.39, 13.81, 14.31, 14.31, 14.31, 14.31, 14.64, 14.64, 14.64, 14.75, 15.2, 15.2, 15.2, 15.2, 15.2, 15.2, 14.75, 14.3, 13.86, 13.41, 13.41, 13.41, 13.41, 13.41, 13.41, 13.28, 12.83, 13.28, 13.31, 13.31, 13.31, 13.31, 12.58, 11.28, 10.84, 11.71, 13.01, 13.01, 13.01, 11.71, 10.84, 9.97, 8.67, 8.67, 8.24, 8.17, 7.74, 7.74, 7.37, 7.74, 7.4, 7.12, 6.7, 6.02, 8.05, 8.05, 5.69, 5.06, 3.4, -0.0, 8.94, 0.0, 2.28, 5.29, 7.59, 9.3, 12.45, 14.75, 17.0, 18.04, 17.1, 18.29, 19.67, 18.31, 14.18, 13.01, 12.58, 12.3, 11.39, 10.8, 11.44, 10.58, 11.39, 10.99, 10.8, 10.79, 10.79, 10.79, 11.44, 11.44, 12.3, 12.3, 12.3, 12.72, 12.72, 13.15, 13.39, 13.39, 13.39, 13.39, 14.31, 14.31, 14.31, 14.31, 14.64, 14.64, 14.64, 14.75, 14.75, 15.2, 15.2, 15.2, 15.2, 15.2, 14.75, 14.3, 13.86, 13.86, 13.41, 12.96, 12.96, 12.96, 12.83, 12.83, 12.83, 12.83, 13.28, 12.86, 12.86, 12.86, 12.58, 11.28, 10.84, 11.71, 12.58, 12.58, 12.58, 11.71, 10.84, 9.54, 8.37, 7.95, 7.53, 7.74, 7.74, 7.81, 7.37, 7.37, 7.31, 7.12, 6.94, 6.51, 5.73, 8.49, 8.05, 7.15, 7.6, 8.05, 5.69, 3.8, 2.83, 5.9, 9.2, 10.73, 11.46, 12.92, 13.82, 12.65, 13.8, 18.72, 22.36, 19.8, 15.98, 13.8, 11.77, 11.81, 11.2, 11.33, 10.24, 9.58, 9.97, 10.35, 10.4, 10.16, 10.16, 10.16, 11.44, 11.44, 12.3, 12.3, 12.72, 12.72, 12.72, 13.15, 12.98, 13.39, 13.39, 13.39, 14.31, 14.31, 14.31, 14.31, 14.64, 14.64, 14.64, 14.64, 14.75, 15.2, 15.2, 15.2, 15.2, 15.2, 14.75, 14.3, 13.86, 13.86, 13.41, 12.96, 12.96, 12.35, 12.39, 12.39, 12.39, 12.39, 12.83, 12.86, 12.86, 12.58, 12.58, 11.71, 10.84, 11.71, 12.14, 11.72, 11.5, 10.88, 10.05, 9.21, 8.37, 7.95, 7.4, 7.4, 7.4, 6.99, 7.53, 7.12, 6.7, 6.7, 6.28, 6.02, 5.51, 8.49, 7.6, 8.05, 8.49, 8.05, 6.01, 0.0, 4.0, 6.64, 10.28, 7.59, 10.0, 11.72, 11.12, 9.17, 10.54, 16.63, 21.41, 20.68, 18.16, 15.99, 12.93, 10.73, 10.03, 9.02, 8.69, 9.17, 8.82, 8.41, 8.94, 8.94, 8.94, 8.94, 11.44, 11.44, 12.3, 12.3, 12.3, 12.72, 13.15, 13.15, 13.15, 12.98, 13.39, 13.39, 13.88, 14.31, 14.31, 14.31, 14.64, 14.64, 14.64, 14.19, 14.3, 14.75, 15.2, 15.2, 15.2, 15.2, 14.75, 14.3, 13.86, 13.86, 13.41, 13.41, 12.79, 12.35, 12.39, 11.95, 11.95, 12.39, 12.39, 12.39, 12.42, 12.14, 12.14, 11.71, 10.84, 11.3, 11.72, 11.72, 11.09, 10.27, 10.05, 9.63, 8.79, 8.22, 7.4, 6.99, 6.99, 6.99, 7.12, 7.12, 7.12, 6.28, 5.75, 4.93, 4.66, 7.2, 7.6, 7.6, 8.05, 8.05, 8.94, 0.0, 0.0, 6.64, 9.83, 9.2, 8.93, 8.22, 7.24, 8.24, 10.99, 14.16, 17.99, 19.04, 21.19, 19.43, 16.54, 10.62, 8.85, 8.97, 8.53, 8.22, 7.9, 6.87, 7.9, 8.73, 8.73, 8.73, 11.44, 11.44, 12.3, 12.3, 12.3, 12.72, 13.15, 13.15, 13.15, 13.39, 13.39, 13.88, 14.31, 14.31, 14.31, 14.31, 14.64, 14.64, 14.64, 14.64, 14.75, 14.75, 15.2, 15.2, 15.2, 14.75, 14.75, 14.3, 13.86, 13.41, 13.41, 13.23, 12.79, 12.35, 12.35, 11.95, 11.95, 11.95, 11.95, 12.39, 12.14, 12.14, 12.14, 11.71, 10.88, 11.72, 12.14, 11.5, 10.68, 9.86, 9.45, 9.04, 9.04, 8.63, 7.81, 7.4, 6.99, 6.57, 6.21, 6.8, 6.8, 5.82, 5.05, 4.66, 4.4, 5.58, 4.74, 0.0, 7.6, 8.49, 8.94, 9.39, 0.0, 0.0, 0.0, 6.95, 5.7, 2.1, 4.4, 7.56, 10.41, 11.58, 12.65, 16.72, 20.68, 21.28, 13.8, 5.2, 5.77, 9.08, 8.22, 7.26, 6.71, 5.0, 3.53, 0.0, 0.0, 0.0, 11.44, 11.87, 12.3, 12.3, 12.3, 12.72, 13.15, 13.15, 13.15, 13.39, 13.88, 13.88, 14.31, 14.31, 14.31, 14.31, 14.64, 14.64, 14.64, 14.64, 14.75, 14.75, 15.2, 15.2, 14.75, 14.75, 14.75, 14.3, 13.86, 13.86, 13.23, 13.23, 12.79, 12.35, 12.35, 11.95, 11.95, 11.95, 11.95, 11.95, 11.61, 11.71, 11.71, 11.3, 11.3, 11.72, 12.14, 11.5, 10.68, 9.86, 8.93, 8.54, 8.54, 7.76, 7.37, 6.99, 6.99, 6.6, 6.21, 6.21, 6.4, 5.09, 4.73, 4.46, 4.09, 5.21, 2.8, 0.0, 0.0, 0.0, 8.49, 8.94, 6.64, 0.0, 0.0, 9.39, -0.0, -0.0, 2.6, 6.98, 9.82, 10.01, 10.62, 14.47, 20.23, 18.64, 14.71, 2.49, 0.0, 6.42, 9.7, 7.9, 3.53, -8.22, -11.18, -10.73, -10.73, -10.73, 11.87, 11.87, 11.87, 12.3, 12.3, 12.3, 12.72, 13.15, 13.15, 13.88, 13.88, 14.31, 14.31, 14.31, 14.31, 14.31, 14.64, 14.64, 14.64, 14.75, 14.75, 14.75, 14.75, 14.75, 14.75, 14.75, 14.75, 14.3, 13.86, 13.67, 13.23, 13.23, 12.79, 12.79, 12.35, 11.91, 11.95, 11.51, 11.51, 11.18, 11.61, 11.71, 11.71, 10.88, 11.3, 11.72, 12.14, 11.5, 10.48, 9.7, 8.93, 8.54, 8.54, 7.76, 7.37, 6.99, 6.99, 6.6, 6.6, 5.82, 5.82, 5.46, 5.09, 4.12, 3.79, 3.79, 2.12, 0.0, -1.63, -2.26, -3.4, 0.0, 8.4, 8.8, 0.0, 9.39, -0.0, -0.0, 3.25, 7.9, 9.3, 9.67, 11.2, 14.18, 22.8, 20.56, 15.65, 5.0, -6.01, 0.0, 8.72, 8.82, 0.0, -10.0, -10.73, -10.28, -10.28, -10.28, 11.87, 11.87, 11.87, 12.3, 12.3, 12.3, 12.72, 13.15, 13.53, 13.88, 13.88, 14.31, 14.31, 14.31, 14.31, 14.64, 14.64, 14.64, 14.64, 14.75, 14.75, 14.75, 14.75, 14.75, 14.75, 14.75, 14.3, 14.3, 13.86, 13.23, 13.23, 12.79, 12.79, 12.79, 12.35, 11.91, 11.95, 11.51, 11.51, 11.18, 11.18, 11.28, 10.88, 10.88, 10.88, 10.88, 10.8, 10.48, 10.48, 9.7, 9.32, 8.93, 8.54, 8.15, 7.76, 7.37, 6.55, 6.18, 6.18, 6.18, 5.82, 5.09, 4.75, 4.11, 3.72, 3.22, 3.0, 0.0, -1.63, -3.2, -3.4, -1.95, 2.06, 4.96, 4.4, 0.0, -0.0, -0.0, 7.27, 10.18, 9.3, 9.3, 11.71, 19.65, 23.23, 21.0, 16.99, 12.96, -8.93, 0.0, 8.33, 7.28, 0.0, -7.81, -9.83, -9.83, -9.83, -9.83, 11.87, 11.87, 11.87, 11.87, 12.3, 12.3, 12.72, 13.09, 13.53, 13.44, 13.88, 13.88, 14.31, 14.31, 14.31, 14.64, 14.64, 14.64, 14.64, 15.2, 14.75, 14.75, 14.75, 14.75, 14.75, 14.3, 14.3, 14.3, 13.67, 13.23, 13.23, 12.79, 12.79, 12.35, 12.35, 11.91, 11.95, 11.51, 11.18, 10.75, 11.28, 10.88, 10.88, 10.88, 10.46, 10.0, 10.09, 10.09, 10.09, 9.7, 9.32, 8.93, 8.54, 8.0, 7.64, 7.28, 6.91, 6.52, 6.18, 5.77, 5.43, 5.43, 5.09, 4.43, 4.07, 3.64, 2.8, 1.98, 0.0, -2.66, -2.82, -1.67, 0.0, 0.0, 0.0, 0.0, -9.39, 9.83, 10.28, 10.73, 10.73, 10.84, 13.83, 18.78, 21.89, 20.56, 16.99, 13.86, -11.2, 0.0, 8.58, 7.51, 0.0, -6.01, -8.0, -9.11, -9.11, -9.11, 11.87, 11.87, 11.87, 11.87, 11.87, 12.3, 13.09, 13.53, 13.53, 13.44, 13.44, 13.88, 14.31, 14.31, 14.64, 14.64, 14.64, 14.64, 14.64, 15.2, 15.2, 14.75, 14.75, 14.75, 14.3, 14.3, 14.3, 13.86, 13.67, 13.23, 13.23, 12.79, 12.79, 12.35, 12.35, 11.91, 11.91, 11.18, 11.18, 10.75, 10.27, 10.88, 10.88, 10.46, 10.0, 9.6, 9.32, 9.32, 9.32, 9.32, 9.32, 8.93, 8.0, 8.0, 8.0, 7.64, 7.28, 6.87, 6.01, 5.77, 5.77, 5.06, 4.74, 4.36, 4.36, 3.9, 3.33, 2.47, 1.73, 0.0, 0.0, -2.06, -1.75, 0.0, 0.0, -2.06, -2.97, 0.0, 5.7, 8.55, 9.2, 10.73, 12.96, 16.91, 20.42, 19.14, 15.49, -11.87, -9.67, 0.0, 6.71, 4.8, -8.0, -8.0, -8.4, -8.33, -8.33, -8.33, 11.87, 11.87, 11.87, 11.87, 11.87, 12.22, 12.66, 13.09, 13.09, 13.01, 13.44, 13.88, 13.88, 14.31, 14.64, 14.64, 14.64, 14.64, 14.75, 15.2, 15.2, 15.2, 15.2, 14.75, 14.3, 14.3, 14.3, 13.86, 13.67, 13.23, 12.79, 12.79, 12.35, 12.35, 12.35, 11.91, 11.45, 11.18, 10.75, 10.75, 10.27, 10.46, 10.46, 10.0, 9.6, 9.6, 9.32, 9.32, 8.93, 8.93, 8.93, 8.37, 8.37, 8.0, 8.0, 7.64, 7.21, 6.32, 6.01, 6.11, 5.69, 5.37, 5.06, 4.02, 4.02, 4.02, 3.55, 2.35, 2.47, 3.4, 3.4, 0.0, -2.06, -2.17, -2.17, 0.0, 0.0, 0.0, 2.02, 4.6, 3.25, 9.6, 11.78, 14.3, 18.26, 18.7, 13.99, -11.91, -10.08, -5.7, -5.95, -10.73, -10.28, -9.11, -9.11, -9.21, -9.21, -9.21, 11.87, 11.87, 11.87, 11.87, 12.3, 12.66, 12.66, 12.66, 13.01, 13.01, 13.44, 13.88, 13.88, 14.64, 14.64, 14.64, 14.64, 14.64, 14.75, 14.75, 15.2, 15.2, 15.2, 14.75, 14.3, 14.3, 14.3, 13.67, 13.23, 13.23, 12.79, 12.35, 12.35, 12.35, 11.45, 11.45, 11.45, 11.18, 11.18, 10.27, 10.27, 10.46, 10.46, 10.0, 9.6, 9.32, 9.32, 8.93, 8.93, 8.93, 8.37, 8.37, 8.37, 8.0, 8.0, 7.47, 6.64, 6.32, 6.32, 6.01, 5.69, 5.37, 5.0, 4.29, 4.29, 4.29, 4.29, 3.2, 2.35, 3.2, 3.4, 3.4, 0.0, -3.6, -3.8, 0.0, 0.0, 0.0, 2.02, 2.02, 2.49, 6.17, 9.09, 12.39, 16.52, 18.33, 16.09, -13.15, -8.91, -8.49, -8.94, -10.28, -10.73, -10.28, -9.21, -9.21, -9.21, -9.21, 11.72, 11.72, 11.72, 11.72, 12.58, 12.66, 12.66, 13.01, 13.01, 13.01, 13.44, 13.44, 14.19, 14.64, 14.64, 14.64, 14.64, 14.64, 14.75, 15.2, 15.2, 15.2, 15.2, 14.75, 14.3, 14.3, 13.86, 13.67, 13.23, 12.79, 12.79, 12.35, 12.35, 11.45, 11.45, 11.45, 11.03, 11.18, 10.68, 10.27, 10.27, 10.27, 10.0, 9.6, 9.32, 9.32, 9.32, 8.93, 8.93, 8.37, 8.37, 8.0, 8.37, 7.47, 7.47, 7.47, 6.64, 6.64, 5.82, 6.01, 6.01, 5.3, 5.3, 4.56, 3.97, 3.97, 4.29, 3.79, 3.2, 2.82, 1.84, 1.84, 0.0, -3.4, -2.99, -1.75, 0.0, 0.0, 0.0, 0.0, 0.0, 3.82, 7.9, 10.99, 14.58, 17.72, 16.95, 14.3, -10.6, -8.06, -9.26, -9.83, -10.28, -10.28, -9.39, -9.39, -9.39, -9.39, 11.72, 11.72, 11.72, 11.72, 12.58, 12.58, 12.58, 13.01, 13.01, 13.01, 13.44, 13.75, 14.19, 14.19, 14.64, 14.19, 14.19, 14.75, 14.75, 14.75, 15.2, 15.2, 15.2, 15.2, 14.3, 13.86, 13.72, 13.67, 13.23, 12.79, 12.79, 12.35, 11.87, 11.45, 11.45, 11.45, 11.45, 11.18, 10.68, 10.27, 10.27, 10.27, 9.32, 9.32, 9.32, 9.32, 8.93, 8.93, 8.37, 8.37, 8.37, 8.0, 8.0, 7.47, 7.47, 7.13, 6.64, 6.11, 6.11, 6.32, 5.59, 5.59, 5.3, 4.22, 4.22, 3.97, 3.97, 4.56, 4.03, 3.2, 2.82, 1.49, 0.0, -1.73, -2.82, -1.67, 0.0, 0.0, 0.0, 0.0, 0.0, 3.98, 7.9, 10.56, 13.52, 16.48, 16.82, 14.99, 13.41, -8.77, -9.26, -9.83, -9.83, -9.83, -9.39, -9.39, -9.39, -9.39, 11.72, 11.72, 11.72, 12.14, 12.14, 12.58, 12.58, 12.58, 13.01, 13.01, 13.75, 13.75, 14.19, 14.19, 14.19, 14.19, 14.19, 14.3, 14.75, 14.75, 14.75, 15.2, 15.2, 14.75, 14.3, 13.86, 13.72, 13.23, 13.23, 12.79, 12.79, 11.87, 11.45, 11.45, 11.45, 11.45, 11.45, 10.4, 10.68, 10.68, 10.27, 9.7, 9.7, 9.32, 9.32, 9.32, 8.93, 8.37, 8.37, 8.37, 8.0, 7.47, 7.47, 7.47, 7.47, 6.64, 6.11, 5.82, 6.11, 5.89, 5.89, 5.59, 4.94, 4.46, 4.22, 3.69, 4.22, 4.56, 4.83, 4.03, 3.55, 3.6, 1.63, 0.0, 0.0, -1.95, -1.67, 0.0, 0.0, 0.0, 0.0, 3.39, 7.27, 10.25, 12.7, 15.77, 16.22, 15.11, 13.15, 12.07, -9.39, -9.39, -9.83, -9.39, -9.39, -8.94, -8.94, -8.94, 11.72, 11.72, 12.58, 12.58, 12.58, 12.58, 12.58, 12.58, 12.58, 13.31, 13.31, 13.75, 14.19, 14.19, 14.19, 14.19, 14.3, 14.3, 14.3, 14.75, 14.75, 14.75, 14.75, 14.75, 14.3, 13.72, 13.72, 13.23, 13.23, 12.79, 12.3, 11.87, 11.45, 11.45, 11.45, 10.4, 10.4, 10.4, 10.68, 10.27, 10.27, 9.7, 9.7, 9.32, 9.32, 9.32, 8.73, 8.37, 8.37, 8.37, 7.47, 7.47, 7.47, 7.47, 6.64, 6.11, 6.11, 5.82, 5.36, 5.89, 5.89, 5.21, 5.21, 4.46, 4.46, 3.69, 3.69, 4.46, 4.83, 4.03, 3.2, 3.0, 2.6, 5.37, 6.71, 0.0, -2.06, -2.97, 0.0, 0.0, 2.02, 4.23, 7.27, 9.53, 11.6, 14.64, 15.45, 14.66, 13.83, 12.45, 10.18, 9.83, -9.39, -8.94, -8.94, 8.94, 8.94, 8.94, 11.72, 11.72, 12.58, 12.58, 12.58, 12.58, 12.58, 12.58, 12.58, 13.31, 13.31, 13.75, 14.19, 14.19, 14.19, 14.19, 14.3, 14.3, 14.3, 14.75, 14.75, 14.75, 14.75, 14.75, 14.3, 13.72, 13.72, 13.23, 13.23, 12.79, 12.3, 11.87, 11.45, 11.45, 11.45, 10.4, 10.4, 10.4, 10.68, 10.27, 10.27, 9.7, 9.7, 9.32, 9.32, 9.32, 8.73, 8.37, 8.37, 8.37, 7.47, 7.47, 7.47, 7.47, 6.64, 6.11, 6.11, 5.82, 5.36, 5.89, 5.89, 5.21, 5.21, 4.46, 4.46, 3.69, 3.69, 4.46, 4.83, 4.03, 3.2, 3.0, 2.6, 5.37, 6.71, 0.0, -2.17, -2.97, 0.0, 0.0, 2.02, 4.8, 6.5, 9.17, 10.63, 12.8, 14.4, 14.66, 13.39, 12.96, 12.07, 9.39, 9.39, 9.39, 8.91, 9.11, 9.11, 9.11]}, {"header": {"dx": 0.06612293990616946, "dy": 0.0552356325346848, "nx": 98, "ny": 59, "la1": 35.046912555036876, "la2": 31.78801023549047, "lo1": -121.43107172385933, "lo2": -114.95102361305473, "refTime": "2026041010", "parameterCategory": 1, "parameterNumber": 3}, "data": [14.75, 14.75, 14.75, 14.75, 14.75, 14.47, 14.47, 14.47, 14.31, 14.31, 13.15, 10.4, 8.85, 7.9, 7.27, 7.59, -0.0, -0.0, -0.0, 7.27, 9.39, 8.91, 7.15, 7.15, 5.36, 5.63, 4.83, 4.83, 6.32, 7.15, 9.11, 6.32, -0.0, -0.0, -0.0, -0.0, 0.0, 0.0, 0.0, 0.0, -0.0, -9.83, -8.22, -7.19, -7.36, -7.6, -8.35, -9.46, -7.58, -2.0, 5.8, 8.53, 7.95, 8.24, 8.54, 8.54, 8.83, 8.23, 7.44, 7.44, 6.51, 6.51, 6.87, 7.54, 9.17, 9.48, 8.31, 7.13, 6.2, 4.98, 4.71, 3.73, 3.55, 3.47, 3.96, 3.96, 3.96, 0.0, -9.8, -6.94, -6.17, -7.87, -7.51, -8.0, -8.77, -8.94, -8.24, -6.79, -4.71, -4.0, -5.3, -5.99, -6.77, -7.12, -7.12, -6.56, -5.41, -5.29, 14.3, 14.75, 14.75, 14.75, 14.75, 14.47, 14.75, 14.75, 14.31, 13.99, 13.41, 12.96, 8.22, 7.59, 11.62, -0.0, -0.0, -0.0, -0.0, 4.4, 10.28, 10.28, 8.4, 6.32, 5.69, 5.1, 5.36, 5.36, 6.32, 8.0, 7.89, 8.49, 5.37, -0.0, -0.0, -0.0, 0.0, 0.0, 0.0, 0.0, -9.83, -11.62, -10.79, -11.17, -11.7, -11.88, -11.57, -9.12, 0.0, 6.0, 7.56, 6.97, 6.97, 7.14, 8.24, 9.17, 8.83, 8.23, 7.44, 6.9, 6.0, 6.3, 6.87, 8.3, 9.96, 9.17, 8.83, 7.69, 6.76, 4.81, 4.71, 3.96, 3.81, 3.41, 2.81, 3.73, 2.45, 0.0, -9.8, -6.94, -6.17, -7.87, -7.51, -8.0, -8.77, -8.94, -8.24, -6.79, -4.71, -4.0, -5.3, -5.99, -6.77, -7.12, -7.12, -6.56, -5.41, -5.29, 14.3, 14.75, 14.75, 14.75, 14.75, 14.31, 14.75, 14.75, 14.75, 14.3, 12.52, 10.28, 11.62, -0.0, -0.0, 7.59, -0.0, -0.0, -0.0, -0.0, 4.4, 7.59, 11.18, 8.55, 6.32, 6.01, 6.32, 5.36, 4.96, 8.94, 8.05, 7.15, 6.94, 6.8, 4.74, 0.0, 0.0, 0.0, 0.0, 0.0, -11.62, -13.59, -13.97, -14.88, -15.53, -14.22, -9.98, 0.0, 8.38, 6.24, 5.92, 6.16, 6.4, 7.28, 8.15, 8.73, 8.05, 7.44, 6.9, 6.0, 6.0, 6.3, 7.54, 9.96, 10.55, 10.37, 9.17, 8.1, 7.19, 5.8, 5.38, 4.13, 2.81, 2.4, 1.61, 1.25, 1.04, 0.0, -7.69, -6.9, -6.17, -6.64, -7.15, -7.67, -8.48, -8.82, -7.94, -7.89, -6.32, -5.95, -6.9, -7.69, -8.29, -8.37, -7.73, -6.57, -5.06, -4.56, 14.3, 14.3, 14.75, 14.75, 14.75, 14.75, 14.75, 14.42, 13.99, 13.86, 12.07, 10.73, 12.07, -0.0, -0.0, -0.0, -0.0, -0.0, -0.0, -0.0, -0.0, -0.0, 11.18, 11.62, 9.6, 7.87, 6.63, 6.32, 6.32, 8.49, 8.49, 8.94, 8.94, 8.0, 5.36, 2.28, 0.0, 0.0, -8.22, -11.16, -14.94, -17.26, -17.19, -14.91, -12.33, -6.14, 2.98, 6.2, 5.98, 6.5, 6.16, 6.21, 6.21, 8.01, 8.85, 8.44, 7.78, 7.44, 6.0, 6.0, 4.81, 6.87, 9.62, 10.87, 10.61, 10.41, 9.69, 8.85, 8.66, 7.34, 6.28, 4.91, 3.8, 0.99, 0.0, -2.93, -1.2, 0.0, -11.06, -7.44, -5.46, -6.95, -7.15, -7.28, -6.28, -8.0, -8.94, -7.6, -6.68, -8.66, -8.61, -8.84, -8.66, -7.82, -5.69, -3.11, -2.28, -2.83, 14.3, 14.3, 14.75, 14.75, 14.75, 14.75, 15.2, 15.2, 13.99, 12.39, 12.07, 10.73, 11.62, 0.0, -0.0, -0.0, -0.0, 0.0, -12.07, -0.0, -0.0, 0.0, 10.73, 11.62, 10.41, 10.0, 7.87, 6.64, 6.64, 6.79, 8.94, 9.54, 11.62, 9.67, 5.0, 2.19, 2.19, 0.0, -8.05, -14.66, -13.59, -12.33, -5.64, -2.63, 0.0, 6.21, 7.44, 6.5, 6.76, 7.02, 6.94, 6.94, 6.94, 8.01, 8.15, 7.78, 7.19, 6.0, 5.55, 5.55, 5.27, 9.17, 11.5, 10.8, 11.2, 10.73, 10.25, 9.3, 9.48, 8.31, 7.11, 5.56, 4.85, 3.18, 0.0, -5.0, -7.26, -4.32, -14.3, -8.87, -5.72, -6.64, -6.79, -6.63, -4.87, -7.28, -8.85, -7.44, -9.23, -10.04, -9.31, -8.29, -8.07, -4.8, 6.64, 2.28, -0.99, -2.57, 14.3, 14.3, 14.3, 14.75, 14.75, 14.75, 15.2, 14.75, 14.75, 13.86, 12.07, 0.0, 0.0, 0.0, -0.0, -0.0, -8.22, -12.07, -10.8, -12.52, -8.85, 0.0, 0.0, 9.17, 8.53, 8.53, 8.22, 6.71, 6.44, 7.59, 7.51, 9.11, 9.83, 5.4, 0.0, 0.0, 0.0, 0.0, -2.87, -15.62, -15.27, 0.0, 2.45, 3.96, 5.6, 8.01, 8.53, 7.85, 7.02, 6.7, 7.26, 7.54, 7.73, 8.01, 7.54, 6.3, 5.27, 5.27, 4.58, 4.24, 6.43, 11.62, 11.71, 11.03, 11.2, 10.25, 9.88, 9.69, 8.97, 7.49, 6.28, 5.67, 6.07, 4.98, 2.88, -1.96, -9.96, -10.73, -10.28, -8.53, -6.64, -7.76, -7.4, -6.32, -6.82, -8.45, -9.08, -9.9, -10.81, -10.12, -9.48, -8.37, -6.45, 8.24, 9.39, 0.0, -2.35, -3.95, 14.3, 14.3, 14.3, 14.75, 14.75, 14.75, 14.75, 14.75, 14.3, 13.86, 0.0, 0.0, 0.0, 0.0, -0.0, -0.0, -12.07, -12.52, -10.41, -11.2, -12.96, -14.3, -14.75, -13.99, 0.0, 0.0, 0.0, 3.47, 3.14, 7.59, 9.6, 8.05, 8.18, 3.11, 0.0, 0.0, 0.0, 0.0, 0.0, 0.0, -0.0, -0.0, 0.0, 7.44, 10.43, 9.96, 10.01, 9.42, 8.53, 7.82, 7.54, 7.26, 6.94, 6.21, 4.93, 3.14, 3.14, 3.14, 2.32, 2.54, 7.51, 12.07, 11.18, 10.8, 10.8, 10.01, 10.09, 8.44, 6.3, 4.81, 4.13, 3.91, 3.53, 3.9, 3.24, 2.34, -7.69, -9.97, -9.83, -9.33, -8.37, -8.14, -8.99, -9.33, -10.68, -11.52, -11.83, -11.9, -10.86, -9.56, -9.77, -10.41, 8.06, 8.24, 4.0, -2.83, -3.78, -4.8, 13.86, 14.3, 14.3, 14.3, 14.75, 14.75, 14.75, 14.75, 14.3, 13.41, 0.0, 0.0, 0.0, 0.0, 0.0, -0.0, -12.07, -9.17, -9.17, -4.24, 0.0, 0.0, -11.99, -15.18, -13.59, -10.75, -11.06, -7.2, 0.0, 11.99, 8.53, 6.7, 6.94, 3.04, 0.0, -2.06, -4.1, 0.0, 0.0, 0.0, -0.0, -0.0, -0.0, 0.0, 16.09, 13.88, 10.4, 9.53, 8.53, 8.3, 6.97, 6.21, 6.94, 4.93, 3.44, 1.77, 0.0, 0.0, 0.0, 0.0, 9.67, 11.18, 10.96, 10.4, 9.42, 8.87, 6.2, 3.14, 0.0, 1.04, 0.86, 0.84, 0.0, 0.0, 0.8, 1.78, 1.63, 0.0, -7.51, -11.64, -14.65, -11.91, -9.72, -10.7, -12.04, -12.37, -11.3, -10.9, -9.56, -9.02, -7.9, 7.21, 7.37, 8.49, -2.06, -3.8, -4.71, -5.52, 13.86, 14.3, 14.3, 14.3, 14.75, 14.75, 14.75, 14.75, 14.3, 9.17, 0.0, 0.0, 0.0, 0.0, -12.52, -12.52, -12.96, -11.99, -11.99, -6.0, 0.0, 0.0, 0.0, -10.12, -11.6, -9.3, -9.33, -13.86, 0.0, 0.0, 0.0, 0.0, 0.0, 0.0, 0.0, 0.0, -5.0, -5.0, -2.02, 0.0, -0.0, -0.0, -0.0, -0.0, 8.22, 11.18, 12.14, 10.12, 8.85, 8.85, 8.59, 7.54, 6.7, 4.75, 3.32, 0.0, 0.0, -1.44, -1.64, 0.0, 10.6, 10.41, 9.97, 9.3, 8.31, 6.4, 3.36, 0.0, -4.24, -3.18, -0.96, -0.79, -0.84, -0.82, 0.0, 0.0, 0.0, 0.0, -1.06, -5.09, -11.7, -14.22, -9.8, -9.39, -10.16, -10.95, -10.48, -8.6, -7.59, -6.14, 3.2, 5.94, 6.0, 0.0, -3.8, -4.12, -5.28, -5.38, 13.86, 13.86, 14.3, 14.3, 14.75, 14.75, 14.75, 14.75, 10.12, 0.0, 0.0, 0.0, 0.0, 0.0, -9.8, -13.41, -14.3, -14.75, -14.75, -13.41, -12.96, -12.3, -9.8, -10.12, -12.79, -10.4, -8.91, -10.73, -14.75, -7.93, -6.6, -9.17, 0.0, 0.0, 0.0, 0.0, -2.1, -2.97, 0.0, 0.0, -9.17, -4.1, -0.0, -0.0, 10.28, 11.18, 11.28, 9.66, 9.96, 9.76, 9.42, 8.53, 7.65, 6.16, 4.58, 3.19, 0.0, -1.91, -5.2, 3.68, 10.6, 9.97, 11.18, 11.53, 10.12, 7.69, 4.38, 0.0, -5.4, -6.45, -5.18, -4.24, -3.28, -2.72, -1.77, -1.83, -2.82, -2.82, -2.22, -1.68, -5.13, -12.92, -13.41, -8.05, -8.8, -8.82, -9.03, -8.03, -6.77, -5.36, 0.0, 0.0, -1.63, -3.4, -4.37, -5.21, -5.9, -5.76, 13.86, 13.86, 14.3, 14.75, 14.75, 14.75, 14.75, 10.43, 10.12, 0.0, 0.0, 0.0, 0.0, 0.0, 0.0, -10.12, -13.99, -14.84, -15.27, -16.66, -17.43, -17.1, -15.77, -13.19, -13.99, -12.3, -9.75, -9.2, -11.6, -7.69, -7.19, -5.8, 0.0, 0.0, -10.0, -2.93, 0.0, 0.0, 0.0, 0.0, -14.3, 0.0, 0.0, 0.0, 9.6, 9.97, 10.52, 10.38, 9.58, 9.7, 10.4, 10.18, 9.34, 9.0, 8.38, 8.35, 7.72, 4.48, -8.53, 11.62, 11.18, 10.84, 12.87, 13.48, 13.19, 12.09, 10.12, 7.34, 0.0, -6.7, -6.08, -4.99, -5.14, -5.14, -4.97, -4.66, -5.8, -6.7, -5.99, -4.24, -3.69, -7.2, -13.59, -12.71, -8.48, -6.88, -7.42, -7.51, -6.95, -6.01, -6.01, -6.42, -5.31, -4.74, -5.2, -5.9, -5.9, -6.01, 13.86, 13.86, 14.3, 14.75, 14.75, 14.75, 14.75, 10.43, 10.12, 0.0, 0.0, 0.0, 0.0, 0.0, 0.0, -2.45, -5.6, -9.22, -10.3, -12.01, -10.59, -7.2, -5.81, -5.09, 0.0, 0.0, 0.0, 0.0, 0.0, 0.0, 0.0, 0.0, 0.0, 0.0, -7.59, -4.6, 0.0, 12.07, -0.0, 0.0, 0.0, 13.41, 8.53, 10.0, 10.28, 9.39, 10.73, 10.73, 10.58, 10.62, 10.47, 10.58, 10.23, 10.8, 10.8, 10.87, 11.53, 8.85, 7.51, 9.75, 10.25, 12.68, 13.99, 14.51, 14.6, 14.51, 13.83, 13.03, 10.82, 7.79, 4.1, 2.24, 0.0, -3.14, -6.87, -7.44, -7.78, -8.15, -8.32, -7.2, -4.38, -2.2, -8.85, -12.27, -7.59, -7.51, -7.76, -8.15, -7.67, -7.15, -8.18, -8.73, -6.91, -5.37, -6.04, -6.2, -5.9, -5.37, 13.86, 9.8, 12.79, 14.75, 14.75, 14.75, 10.43, 10.12, 10.12, 0.0, 0.0, 0.0, 0.0, 0.0, 0.0, 0.0, -2.35, -4.24, -3.56, -2.91, -2.63, 0.0, 1.11, 2.2, 2.2, 2.04, 2.04, 3.02, 3.18, 1.22, 0.0, 0.0, 0.0, 0.0, 0.0, 9.83, 7.27, 5.0, -0.0, -0.0, 12.52, 12.52, 12.07, 10.28, 9.83, 8.67, 9.54, 9.97, 9.83, 9.83, 8.94, 8.82, 8.91, 9.46, 10.79, 10.8, 10.61, 11.06, 5.57, 8.05, 11.71, 13.25, 13.7, 13.41, 13.86, 14.28, 14.27, 13.89, 12.47, 11.9, 11.54, 9.7, 7.12, 3.82, 0.0, -6.44, -7.78, -8.53, -8.85, -7.24, -5.95, -2.28, -6.44, -10.73, -8.85, -7.51, -7.59, -7.87, -6.95, -5.1, -6.32, -7.44, -6.6, -6.79, -7.18, -7.24, -5.1, 0.0, 9.8, 9.8, 9.8, 12.79, 10.43, 10.12, 10.12, 10.12, 6.4, 0.0, 0.0, 0.0, 0.0, 0.0, 0.0, 0.0, -2.65, -2.15, -3.58, -3.1, -1.3, 0.0, 0.0, 1.11, 1.04, 2.07, 1.89, 1.89, 1.96, 1.08, 0.0, 0.0, 0.0, -7.59, 0.0, 9.83, 9.39, 10.28, 10.28, 10.73, 0.0, 11.18, 11.18, 11.18, 9.83, 9.54, 7.63, 8.8, 9.6, 10.18, 9.83, 10.73, 0.0, 0.0, 0.0, 0.0, 10.28, 5.4, 5.5, 9.33, 11.21, 13.41, 13.41, 12.9, 11.91, 11.91, 12.07, 11.76, 11.6, 10.01, 10.86, 10.04, 7.69, 5.2, 2.83, 2.19, 7.59, 4.6, 0.0, -3.11, -8.18, -7.27, -6.21, -10.12, -11.2, -8.38, -6.67, -4.8, -2.17, -1.49, -3.49, -4.56, -5.95, -6.79, -7.59, -7.26, -4.4, -2.4, 9.8, 9.8, 9.8, 10.12, 10.12, 10.12, 10.12, 10.12, 6.4, 0.0, 0.0, 0.0, 0.0, 0.0, -3.16, -3.24, -2.72, -2.34, -2.0, -1.73, -1.51, -1.26, 0.0, 0.0, 0.0, 1.1, 1.07, 2.07, 2.01, 1.05, 0.0, -1.55, -3.82, -4.8, 0.0, 0.0, 7.27, 8.4, 7.9, 0.0, 0.0, 0.0, 0.0, 10.73, 9.39, 8.48, 8.48, 7.6, 6.32, 6.95, 10.28, 0.0, -9.83, 0.0, 0.0, -5.69, -7.6, -2.39, 2.18, 9.62, 10.75, 10.4, 10.0, 10.0, 10.0, 9.6, 10.0, 11.18, 9.96, 8.93, 7.78, 7.12, 4.81, 2.41, 1.14, 6.14, 8.55, 7.27, 4.6, 0.0, -7.9, -9.58, -7.59, -8.24, -8.93, -9.77, -8.05, -5.0, -2.28, -3.49, -3.11, -4.37, -5.59, -5.84, -6.01, -4.71, -3.6, -3.6, 6.2, 6.2, 6.2, 6.4, 6.4, 10.12, 10.12, 6.4, 6.4, 0.0, 0.0, 0.0, 0.0, 0.0, -3.07, -3.16, -2.72, -2.4, -2.11, -1.83, -1.6, 0.0, 0.0, 0.0, 0.0, 0.0, 0.0, 0.0, 0.98, 0.0, 0.0, -1.51, -3.36, -3.68, 0.0, 0.0, 4.4, 6.95, 5.0, 0.0, 0.0, 0.0, 0.0, 9.83, 9.39, 8.06, 8.06, 7.2, 8.05, 8.49, 0.0, 0.0, 0.0, 0.0, 0.0, 0.0, -8.06, -6.95, 0.0, 8.22, 10.28, 9.6, 7.27, 6.95, 4.2, 2.97, 3.8, 9.54, 10.08, 8.24, 4.71, 1.42, 0.0, -1.77, 0.0, 10.0, 10.35, 10.63, 8.94, 7.69, 4.1, 0.0, -7.24, -9.97, -10.18, -9.03, -8.82, -7.87, -6.32, -5.59, -4.66, -5.06, -6.08, -5.15, -5.89, -5.2, -6.01, -6.01, 6.2, 6.2, 6.4, 6.2, 6.2, 6.4, 6.4, 6.6, 6.4, 0.0, 0.0, 0.0, 0.0, 0.0, -3.07, -3.07, -2.57, -2.34, -2.11, -1.88, -1.65, -1.46, 0.0, 0.0, 0.0, 0.0, 0.0, 0.0, 0.0, 0.0, -1.21, -3.04, -5.09, -3.47, -2.17, 0.0, 0.0, 0.0, 0.0, 0.0, -7.59, 0.0, 0.0, 8.49, 9.39, 8.94, 8.94, 8.49, 8.49, 8.94, 8.94, 9.39, 9.39, 6.64, 6.64, 4.2, 0.0, 0.0, 10.0, 10.4, 10.0, 10.28, 9.83, 8.4, 6.64, -0.0, -0.0, 3.8, 8.91, 4.05, 1.04, -2.76, -5.11, -5.2, 6.45, 12.88, 13.39, 11.94, 10.4, 8.65, 8.18, 6.2, 2.91, -2.45, -11.28, -9.83, -8.06, -7.6, -7.07, -6.01, -6.01, -5.69, -5.37, -6.01, -6.77, -6.64, -7.21, -7.21, 4.38, 4.38, 4.52, 4.52, 4.38, 4.38, 6.4, 4.52, 4.66, 0.0, 0.0, 0.0, 0.0, 0.0, 0.0, -2.5, -2.57, -2.65, -2.34, -2.05, -1.78, -1.6, -1.42, 0.0, 1.3, 0.0, 0.0, 0.0, -1.18, -1.24, -1.34, -3.2, -5.65, -5.65, -4.93, -3.8, -4.96, -4.6, -4.8, -7.27, -8.8, -9.39, 0.0, 0.0, 8.94, 9.39, 8.94, 8.94, 9.39, 9.39, 8.4, 8.8, 8.8, 8.8, 8.8, 4.4, 8.8, 9.2, 9.6, 7.9, 5.0, 4.6, 9.83, 8.91, 8.91, 8.06, 5.69, -7.6, -9.54, -5.0, -3.18, -2.33, -3.41, 0.0, 14.94, 15.61, 12.82, 9.81, 7.89, 7.0, 5.81, 4.81, 2.9, -4.65, -11.18, -8.94, -8.94, -8.17, -7.37, -8.93, -6.95, -6.01, -5.37, -6.79, -7.74, -7.47, -7.64, -7.64, 3.36, 3.36, 4.38, 4.52, 4.38, 4.38, 4.52, 4.52, 4.66, 0.0, 0.0, 0.0, 0.0, 0.0, 0.0, 0.0, -2.43, -2.57, 0.0, 0.0, -1.73, -3.16, -3.39, -2.34, 0.0, 0.0, -1.38, -2.11, -2.16, -1.46, 0.0, -1.78, -3.88, -6.12, -5.49, -5.6, -4.88, -5.46, -5.9, -7.9, -8.55, -7.27, 0.0, 0.0, 8.8, 8.8, 8.8, 8.4, 8.4, 8.4, 8.8, 8.8, 8.8, 9.33, 9.33, 7.27, 6.95, 7.59, 3.53, 3.53, 0.0, 0.0, 9.83, 8.06, 7.15, 6.79, 8.06, -8.94, -8.54, -7.85, -2.28, 1.64, 4.78, 5.73, 6.26, 5.23, 0.0, 1.17, 1.83, 1.73, 0.0, 0.0, -0.99, -3.04, -11.28, -10.28, -10.28, -10.38, -9.86, -10.32, -9.13, -7.81, -6.79, -7.44, -7.87, -8.0, -8.55, -8.55, 3.36, 3.36, 3.36, 3.36, 3.36, 3.36, 3.47, 3.47, 0.0, 0.0, 0.0, 0.0, 0.0, 0.0, 0.0, -2.5, -2.43, -2.43, 0.0, -2.5, -2.4, -5.65, -6.34, -5.51, -6.52, -4.54, -2.34, -1.78, -1.69, 0.0, 0.0, 0.0, 0.0, -1.93, -3.69, -4.81, -4.1, -4.72, -3.25, -2.98, -2.46, -1.54, 0.0, 2.58, 4.0, 5.95, 6.95, 6.95, 8.4, 8.4, 8.4, 8.4, 8.91, 8.91, 8.67, 8.4, 7.59, 5.46, 3.25, 0.0, 0.0, 0.0, 0.0, 8.4, 6.01, 6.01, 7.44, 9.39, 0.0, 0.0, 3.94, 5.83, 6.46, 4.1, 0.0, -4.38, -8.93, -10.02, -4.41, -2.5, -1.78, -1.78, -2.89, -3.68, -12.07, -10.6, -10.28, -4.6, -10.38, -10.52, -10.41, -10.4, -9.97, -8.6, -8.58, -8.93, -8.55, -8.55, 2.72, 2.72, 2.72, 2.72, 3.36, 3.36, 3.36, 0.0, 0.0, 0.0, 0.0, 0.0, 0.0, 0.0, 0.0, -2.57, -2.43, -2.43, -4.1, -4.81, -2.79, -4.54, -4.54, -5.65, -6.31, -4.88, -2.88, -1.54, 0.0, 0.0, 1.62, 1.58, 0.0, 0.0, 0.0, -1.65, -2.89, -2.54, -1.16, -1.02, -0.93, 0.0, 0.0, 1.09, 2.04, 4.8, 4.4, 5.46, 6.64, 6.64, 8.94, 8.94, 8.94, 9.39, 9.33, 8.0, 7.27, 7.27, 3.39, -3.11, -4.4, -6.95, 0.0, 4.4, 4.0, 4.0, 6.64, 9.83, 8.58, 8.82, 9.64, 8.43, 7.4, 4.1, -1.78, -8.61, -13.68, -13.18, -10.95, -8.05, -4.41, -2.57, -0.89, -1.3, -6.0, -8.22, 0.0, 0.0, 0.0, -7.27, -8.63, -11.2, -11.2, -9.33, -8.91, -8.4, -8.05, -8.05, 2.28, 2.28, 2.28, 2.72, 2.72, 2.72, 0.0, 0.0, 0.0, 0.0, 0.0, 0.0, 0.0, 0.0, 0.0, -2.57, -2.5, -4.05, -4.05, -4.01, -1.88, -2.05, -2.0, -3.49, -4.88, -3.2, -3.12, -1.5, 0.0, 0.0, 0.0, 1.45, 1.45, 1.45, 0.0, 0.0, 0.0, 0.0, 0.0, 0.0, 0.0, 0.0, 0.0, 0.93, 0.99, 1.75, 2.49, 3.11, 4.2, 6.32, 8.49, 8.49, 8.49, 8.94, 8.48, 9.33, 9.13, 9.6, 8.93, -6.95, -8.94, -6.64, -0.0, 2.97, 4.2, 6.64, 6.64, 9.33, 10.28, 11.18, 11.71, 11.52, 10.35, 6.42, -9.02, -12.79, -15.7, -16.09, -14.95, -12.43, -9.39, -4.91, -1.78, 0.0, 0.0, -3.68, -7.27, -2.28, -3.3, -5.54, -7.9, -10.09, -10.4, -8.0, -7.6, -7.6, -8.0, -8.0, 2.28, 2.28, 2.28, 2.28, 2.28, 2.72, 0.0, 0.0, 0.0, 0.0, 0.0, 0.0, 0.0, 0.0, 0.0, -2.57, -2.5, -2.09, -4.18, -4.01, -1.88, -1.78, -1.68, -3.3, -3.24, -3.12, -3.2, -1.58, 0.0, 0.0, 0.0, 0.0, 0.0, 0.0, 0.0, 0.0, 0.0, 0.0, 0.0, 0.0, 0.0, 0.0, 0.0, 0.89, 0.8, 1.65, 1.93, 0.0, 0.0, 6.01, 5.69, 8.49, 8.49, 8.49, 8.0, 8.94, 9.39, 10.08, 9.6, 6.32, -8.0, -6.32, -0.0, 4.0, 6.32, 7.81, 8.91, 9.39, 9.83, 8.4, 9.3, 11.87, 4.35, 3.33, -11.18, -9.83, -13.78, -15.2, -15.74, -15.44, -12.42, -9.24, -6.2, -3.81, -2.28, -3.32, -6.17, -6.64, -5.9, -6.45, -8.15, -9.3, 0.0, 0.0, 0.0, -6.01, -6.79, -6.79, 3.81, 3.81, 3.81, 1.96, 2.28, 2.28, 0.0, 0.0, 0.0, 0.0, 0.0, 0.0, 0.0, 0.0, 0.0, -2.57, -2.21, -2.09, -2.21, -3.9, -2.05, -1.88, -1.78, -1.47, -2.98, -2.96, -3.12, -1.58, -1.58, 0.0, 0.0, 0.0, 0.0, 0.0, 0.0, 0.0, 0.0, 0.0, 0.0, 0.0, 0.0, 0.0, 0.0, 1.02, 0.89, 0.84, 0.0, 0.0, 0.0, 4.0, 4.0, 6.01, 6.01, 8.49, 8.49, 8.49, 8.05, 8.94, 8.55, 5.7, -8.49, -8.06, -7.6, 6.01, 7.44, 8.4, 9.39, 9.83, 8.94, 9.33, -4.6, -4.24, -0.81, 2.66, 4.23, -14.3, -12.52, -11.99, -13.99, -14.77, -14.68, -11.79, -9.4, -7.79, -6.53, -6.45, -7.59, -7.76, -6.64, -2.97, -5.21, 0.0, 0.0, 0.0, -2.06, -5.1, -6.32, -6.32, 3.81, 3.81, 3.81, 1.96, 1.96, 2.28, 0.0, 0.0, 0.0, 0.0, 0.0, 0.0, 0.0, 0.0, 0.0, 0.0, -2.21, -2.15, -2.15, -2.0, -2.0, -2.11, -1.88, -1.83, -1.56, -2.8, -1.54, -1.58, -1.58, 0.0, 0.0, 0.0, 0.0, 0.0, 0.0, 0.0, 0.0, 0.0, 0.0, 0.0, 0.0, 0.0, 0.0, 0.0, 0.98, 0.93, 0.8, 0.94, 1.11, 1.16, 1.26, 0.0, 3.8, 5.69, 6.01, 8.49, 8.49, 7.6, 0.0, 0.0, 0.0, -7.07, -8.94, 6.64, 8.91, 9.11, 9.21, 9.39, 10.28, -10.28, -10.6, -6.96, -1.18, 2.42, 4.85, 5.14, 0.0, -15.77, -13.81, -11.37, -13.84, -13.29, -12.16, -11.14, -8.97, -6.71, -6.69, -6.98, -8.0, 8.94, 9.83, 9.83, 0.0, 0.0, -1.75, -3.32, -4.6, -4.6, 3.81, 3.81, 3.81, 1.96, 1.96, 1.96, 2.28, 0.0, 0.0, 0.0, 0.0, 0.0, 0.0, 0.0, 0.0, 0.0, -2.21, -2.21, -2.21, -2.21, -1.94, -2.0, -1.88, -1.88, -1.65, -1.6, -1.6, -1.69, -1.73, -1.73, 0.0, 0.0, 0.0, 0.0, 0.0, 0.0, 0.0, 0.0, 0.0, 0.0, 0.0, 0.0, 0.0, 0.0, 0.0, 1.02, 0.98, 0.85, 1.75, 0.93, 1.04, 0.0, 0.0, 0.0, 3.8, 6.01, 8.05, 0.0, 0.0, -4.0, 0.0, -2.49, -4.96, 0.0, 8.91, 8.67, 10.08, 10.52, 10.28, -10.28, -9.6, -7.19, -1.9, 0.85, 4.94, 8.02, 6.81, -1.25, -14.07, -11.96, -12.56, -14.01, -12.76, -11.25, -8.97, -6.98, -4.66, -3.8, 8.94, 8.49, 6.64, 3.25, -2.6, -4.6, -3.65, -3.49, -3.49, -3.49, 3.36, 3.36, 3.81, 1.96, 1.96, 1.96, 1.96, 0.0, 0.0, 0.0, 0.0, 0.0, 0.0, 0.0, 0.0, 0.0, 0.0, -2.21, -2.21, -2.21, -1.94, -1.94, -2.0, -1.83, -1.83, -1.65, -1.6, -1.65, -1.69, -1.69, 0.0, 0.0, 0.0, 0.0, 0.0, 0.0, 0.0, 0.0, 0.0, 0.0, 0.0, 0.0, 0.0, 0.0, 0.0, 0.0, 1.02, 0.93, 0.89, 0.89, 0.0, 0.0, 0.0, 0.0, 0.0, 0.0, 0.0, 0.0, 0.0, -7.6, -4.2, -1.84, -2.6, 0.0, 9.83, 9.39, 10.73, 10.28, 9.83, 0.0, -9.3, -6.45, -4.65, 0.0, 4.4, 6.42, 6.5, 3.01, -10.6, -11.49, -12.14, -13.75, -12.79, -10.9, -9.4, -8.35, -5.9, -3.8, 3.8, 6.32, 0.0, -4.6, -5.2, -6.97, -6.71, -5.52, -5.52, -5.52, 3.36, 3.36, 3.81, 3.81, 1.96, 1.96, 1.96, 0.0, 0.0, 0.0, 0.0, 0.0, 0.0, 0.0, 0.0, 0.0, 0.0, 0.0, 0.0, -2.21, -1.94, -1.94, -1.94, -1.73, -1.78, -1.78, -1.6, -1.78, -1.83, 0.0, 0.0, 0.0, 0.0, 0.0, 0.0, 0.0, 0.0, 0.0, 0.0, 0.0, 0.0, 0.0, 0.0, 0.0, 1.14, 1.09, 0.0, 0.0, 0.0, 0.0, 0.0, 0.0, 0.0, 0.0, 0.0, 0.0, 0.0, 0.0, 0.0, -0.0, -8.05, -4.0, -1.93, 2.28, 8.91, 11.18, 10.73, 10.28, 0.0, -7.27, -3.53, -5.4, -5.6, -6.21, -2.54, -0.84, 0.0, 1.54, 0.0, -11.18, -10.6, -13.44, -13.84, -11.83, -10.43, -9.76, -8.23, -5.1, -2.28, -2.39, -6.17, -6.71, -4.48, -6.44, -7.51, -6.21, -5.98, -5.98, 5.46, 5.46, 3.81, 3.81, 1.96, 1.96, 1.96, 2.02, 0.0, 0.0, 0.0, 0.0, 0.0, 0.0, 0.0, 0.0, 0.0, 0.0, 0.0, -2.15, -1.94, -1.94, -1.94, -1.73, -1.73, -1.73, -1.73, -1.78, 0.0, 0.0, 0.0, 0.0, 0.0, 0.0, 0.0, 0.0, 0.0, 0.0, 0.0, 0.0, 0.0, 0.0, 0.0, 0.0, 1.54, 1.22, 0.0, -1.28, -1.44, 0.0, 0.0, 0.0, 0.0, -1.14, -0.95, -2.12, -2.4, 0.0, 0.0, -0.0, -7.6, -4.96, -2.28, 0.0, 10.28, 10.28, 10.52, 8.55, 0.0, -7.27, -3.53, -3.04, -3.6, -7.96, -10.12, -9.92, -7.91, -3.87, 0.0, -10.8, -9.39, -12.72, -13.59, -12.38, -10.18, -8.58, -7.68, -8.23, -7.59, -6.98, -7.9, -8.22, -7.54, -6.67, -6.9, -6.67, -6.21, -6.21, 5.46, 5.46, 3.81, 3.81, 1.96, 1.96, 1.96, 2.02, 0.0, 0.0, 0.0, 0.0, 0.0, 0.0, 0.0, 0.0, 0.0, 0.0, 0.0, 0.0, -1.94, -1.94, 0.0, -1.94, -1.73, -1.73, -1.68, 0.0, 0.0, 0.0, 0.0, 0.0, 0.0, 0.0, 0.0, 0.0, 0.0, 0.0, 0.0, 0.0, 0.0, 0.0, 0.0, 0.0, 0.0, 0.0, 0.0, -1.66, -1.9, -1.77, -1.39, -1.11, -1.2, -1.07, -1.84, -3.0, -3.2, -2.66, -5.37, -7.15, -7.15, -6.32, -2.69, 0.0, 8.91, 9.11, 9.83, 8.93, 0.0, -5.46, -7.9, -4.24, -0.99, -3.57, -8.99, -11.83, -10.7, -7.71, -3.69, -2.28, -12.45, -12.3, -12.51, -12.38, -10.79, -10.91, -9.48, -10.37, -9.77, -8.85, -7.24, -5.6, -4.65, -6.67, -5.8, -5.8, -3.96, -3.96, 5.28, 5.28, 3.81, 3.81, 3.81, 1.96, 1.96, 2.02, 2.02, 0.0, 0.0, 0.0, 0.0, 0.0, 0.0, 0.0, 0.0, 0.0, 0.0, 0.0, 0.0, 0.0, 0.0, 0.0, 0.0, 0.0, 0.0, 0.0, 0.0, 0.0, 0.0, 0.0, 0.0, 0.0, 0.0, 0.0, 0.0, 0.0, 0.0, 0.0, 0.0, 0.0, 0.0, 0.0, -1.11, -1.69, -1.83, -1.77, -2.35, -1.9, -1.64, -1.16, -0.95, -0.95, -1.6, -2.4, -3.97, -4.22, -3.91, -5.06, -6.4, -6.01, -6.01, -0.0, 7.44, 7.6, 7.6, 0.0, 0.0, -3.82, -7.87, -5.95, 0.0, 0.0, -2.47, -8.83, -10.87, -9.49, -7.1, -4.3, -8.21, -15.49, -13.92, -12.89, -12.62, -11.86, -11.06, -9.49, -8.31, -5.8, -3.14, 0.0, 2.54, 2.06, -2.13, 0.0, 0.0, 0.0, 5.28, 5.28, 3.68, 3.81, 3.81, 1.96, 1.96, 2.02, 2.02, 2.09, 0.0, 0.0, 0.0, 0.0, 0.0, 0.0, 0.0, 0.0, 0.0, 0.0, 0.0, 0.0, 0.0, 0.0, 0.0, 0.0, 0.0, 0.0, 0.0, 0.0, 0.0, 0.0, 0.0, 0.0, 0.0, 0.0, 0.0, 0.0, 0.0, 0.0, 0.0, 0.0, 0.0, 0.0, -1.14, -2.42, -2.81, -1.83, 0.0, -1.77, -1.28, -1.0, -0.89, -0.83, -0.82, -1.35, -2.11, -3.55, -3.77, -3.97, -4.74, -5.37, -6.01, 3.8, 7.44, 8.06, 5.69, -6.64, -4.6, -3.98, -3.11, 0.0, -5.6, 0.0, 0.0, -4.05, -8.62, -8.42, -8.21, -6.17, -5.65, -7.6, -12.92, -11.96, -11.7, -11.18, -11.43, -9.47, -7.36, -2.54, 0.0, 5.6, 5.6, 4.65, 2.06, 1.77, 2.93, 2.93, 5.28, 5.28, 3.68, 3.81, 3.81, 1.72, 1.96, 2.02, 2.02, 2.09, 2.09, 0.0, 0.0, 0.0, 0.0, 0.0, 0.0, 0.0, 0.0, 0.0, 0.0, 0.0, 0.0, 0.0, 0.0, 0.0, 0.0, 0.0, -1.72, 0.0, 0.0, 0.0, 0.0, 0.0, 0.0, 0.0, 0.0, 0.0, 0.0, 0.0, 0.0, 0.0, 0.0, 0.0, -1.18, -1.28, -1.43, -1.53, -1.72, -1.44, -1.04, -0.99, -0.99, -1.0, -0.89, -1.52, -1.41, -2.11, -2.47, -2.2, -2.29, -5.37, 0.0, 8.05, 7.6, 7.63, 8.05, 0.0, -5.46, -3.39, 7.27, 10.73, -11.62, -6.95, -2.38, -1.64, -4.4, -11.84, -11.21, -6.21, -3.95, -2.97, -3.16, -4.54, -6.53, -7.49, -7.49, -7.4, -4.52, -2.13, 0.0, 5.4, 5.4, 4.65, 3.44, 3.44, 2.82, 2.82, 4.71, 4.71, 4.71, 3.25, 3.36, 3.36, 1.72, 1.77, 1.77, 2.09, 2.09, 2.15, 0.0, 0.0, 0.0, 0.0, 0.0, 0.0, 0.0, 0.0, 0.0, 0.0, 0.0, 0.0, 0.0, 0.0, 0.0, -1.83, -1.83, 0.0, 0.0, 0.0, 0.0, 0.0, 0.0, 0.0, 0.0, 0.0, 0.0, 0.0, 0.0, 0.0, 0.0, 0.0, -1.28, -1.28, -1.38, -1.53, -1.53, -1.33, -1.09, -1.04, -1.04, -0.99, -1.75, -1.73, -1.63, -0.78, -1.3, -1.41, -1.84, 0.0, 0.0, 8.49, 7.6, 5.37, 5.69, 5.69, 0.0, 0.0, 8.8, 8.22, -3.82, -8.38, -7.34, -2.44, 0.87, 0.0, -13.41, -7.69, -5.3, -3.79, -3.05, -3.56, -2.58, -3.03, -2.94, -2.8, -1.38, 0.0, 1.98, 5.4, 4.75, 2.93, 1.5, 2.93, 1.5, 1.5, 4.71, 4.71, 4.71, 3.25, 3.36, 3.36, 3.36, 1.77, 1.83, 1.83, 2.15, 2.15, 2.15, 0.0, 2.09, 0.0, 0.0, 0.0, 0.0, 0.0, 0.0, 0.0, 0.0, 0.0, 0.0, 0.0, 0.0, 0.0, 0.0, 0.0, 0.0, 0.0, 0.0, 0.0, 0.0, 0.0, 0.0, 0.0, 0.0, 0.0, 0.0, 0.0, 0.0, 0.0, 0.0, -1.28, -1.38, -1.48, -1.48, -1.43, -1.18, -1.14, -1.04, -0.99, -1.84, -1.84, -1.73, -1.63, -0.78, -0.67, -0.7, 0.0, 0.0, 5.69, 8.49, 6.01, 3.4, 2.69, -0.0, -0.0, 9.83, 5.2, 0.0, -5.28, -6.35, -2.42, 3.23, 5.16, 2.97, -2.38, -5.99, -7.57, -5.81, -4.93, -2.13, -1.6, -1.53, 0.0, 0.0, 2.16, 3.34, 3.53, 2.52, 2.28, 1.2, 1.2, 1.33, 1.33, 4.71, 4.71, 4.71, 4.71, 3.36, 3.36, 3.47, 3.47, 3.58, 1.83, 1.89, 1.89, 2.15, 2.09, 2.09, 2.15, 0.0, 0.0, 0.0, 0.0, 0.0, 0.0, 0.0, 0.0, 0.0, 0.0, 0.0, 0.0, 0.0, 0.0, 0.0, 0.0, 0.0, 0.0, 0.0, 0.0, 0.0, 0.0, 0.0, 0.0, 0.0, 0.0, 0.0, 0.0, 0.0, -1.16, -1.33, -2.81, -2.91, -3.14, -2.82, -1.28, -1.09, -2.04, -1.84, -1.95, -1.84, -1.73, -1.63, -0.72, -0.67, -0.76, 0.0, 0.0, 8.05, 6.32, 3.6, -0.0, -0.0, -0.0, 10.73, 9.2, 2.2, 0.0, -2.56, -1.78, 0.85, 3.14, 2.5, -0.77, -4.85, -8.05, -8.46, -5.81, -1.38, 0.0, 0.0, 0.0, 0.89, 0.86, 1.84, 1.84, 2.08, 1.05, 0.97, 0.0, 0.0, 0.0, 4.55, 4.55, 4.71, 4.71, 3.36, 3.36, 3.47, 3.47, 3.58, 3.58, 1.89, 1.89, 1.89, 2.15, 2.09, 2.09, 0.0, 0.0, 0.0, 0.0, 0.0, 0.0, 0.0, 0.0, 0.0, 0.0, 0.0, 0.0, 0.0, 0.0, 0.0, 0.0, 0.0, 0.0, 0.0, 0.0, 0.0, 0.0, 0.0, 0.0, 0.0, 0.0, 0.0, 0.0, 0.0, 0.0, -1.28, -2.72, -2.81, -3.14, -2.93, -2.71, -2.49, -2.13, -1.94, -1.95, -1.84, -1.84, -1.63, -1.52, -1.41, -1.47, 0.0, 0.0, 0.0, 0.0, -0.0, -0.0, -0.0, 8.94, 9.39, 10.28, 8.85, 2.64, 0.0, -3.28, -3.58, -3.24, -3.13, -3.01, -3.08, -3.8, -6.9, -7.78, -2.45, 0.0, 0.0, 0.0, 0.0, 0.0, 0.97, 0.97, 0.97, 0.0, 0.0, 0.0, 0.0, 0.0, 5.8, 5.8, 4.71, 4.71, 4.87, 3.36, 3.47, 3.47, 3.58, 3.58, 3.69, 3.69, 3.69, 1.89, 2.15, 2.09, 2.09, 0.0, 0.0, 0.0, 0.0, 0.0, 0.0, 0.0, 0.0, 0.0, 0.0, 0.0, 0.0, 0.0, 0.0, 0.0, 0.0, 0.0, 0.0, 0.0, 0.0, 0.0, 0.0, 0.0, 0.0, 0.0, 0.0, 0.0, 0.0, 0.0, -2.28, -2.72, -3.25, -3.14, -3.04, -2.82, -2.6, -2.39, -2.17, -2.06, -1.84, -1.84, -1.63, -1.52, -1.41, -1.47, -2.54, 0.0, 0.0, 0.0, 0.0, 0.0, 0.0, 0.0, 8.94, 10.28, 3.82, 0.92, 0.0, -0.8, -5.31, -7.2, -7.14, -5.16, -2.18, -0.84, -2.56, -4.98, -7.19, -2.54, -1.55, 0.0, 0.0, 0.0, 0.0, 0.0, 0.0, 0.0, 0.0, 0.0, 0.0, 0.0, 5.27, 5.27, 4.1, 4.71, 4.87, 4.87, 3.47, 3.47, 3.58, 3.58, 3.69, 3.69, 3.69, 3.69, 1.89, 1.83, 1.83, 1.83, 0.0, 0.0, 0.0, 0.0, 0.0, 0.0, 0.0, 0.0, 0.0, 0.0, 0.0, 0.0, 0.0, 0.0, 0.0, 0.0, 0.0, 0.0, 0.0, 0.0, 0.0, 0.0, -1.94, -1.94, -1.83, -1.71, 0.0, -1.2, -2.72, -3.47, -3.93, -3.81, -3.56, -3.32, -2.6, -2.49, -2.17, -2.06, -1.95, -1.84, -1.73, -1.63, -1.72, -1.6, -1.7, 0.0, 0.0, 0.0, 0.0, 0.0, 0.0, 0.0, 8.94, 0.0, -5.2, 0.0, 2.21, 3.24, 0.0, -5.21, -7.6, -5.17, -2.3, -0.82, -0.92, -2.81, -6.0, -5.8, -1.83, 0.0, 0.0, 0.0, 0.0, 0.0, 0.0, 0.0, 0.0, 0.0, -1.0, 0.0, 5.27, 5.27, 4.1, 4.71, 4.71, 4.87, 4.87, 3.47, 3.47, 3.58, 3.58, 3.58, 3.69, 3.69, 3.58, 1.83, 1.83, 1.83, 0.0, 0.0, 0.0, 0.0, 0.0, 0.0, 0.0, 0.0, 0.0, 0.0, 0.0, 0.0, 0.0, 0.0, 0.0, 0.0, 0.0, 0.0, 0.0, 0.0, -1.77, -1.83, -1.83, -1.89, -1.77, -3.44, -4.08, -3.56, -3.3, -4.3, -4.05, -3.93, -3.81, -3.44, -2.95, -2.39, -2.17, -2.06, -1.95, -1.84, -1.84, -2.82, -2.64, -2.29, -1.84, -2.26, 0.0, 0.0, 0.0, 0.0, 0.0, 8.05, 8.49, -8.94, -10.18, -6.2, 0.0, 4.3, 4.66, 0.83, -4.03, -7.24, -5.2, -1.38, 0.0, 0.0, -1.83, -2.45, -1.98, 0.0, 0.0, 0.0, -1.28, -1.16, -1.16, -1.09, -1.09, -1.09, -1.09, -1.09, 5.08, 5.08, 4.1, 4.1, 4.24, 4.71, 4.87, 5.02, 5.02, 3.47, 3.58, 3.58, 3.58, 3.58, 3.58, 3.58, 1.83, 1.83, 0.0, 0.0, 0.0, 0.0, 0.0, 0.0, 0.0, 0.0, 0.0, 0.0, 0.0, 0.0, 0.0, 0.0, 0.0, 0.0, 0.0, 0.0, 0.0, -1.66, -1.72, -1.77, -1.77, -1.77, -3.36, -3.04, -4.24, -4.24, -3.2, -1.89, -2.02, -3.81, -3.68, -3.32, -2.7, -2.58, -2.46, -2.33, -2.21, -1.95, -1.95, -2.99, -2.82, -2.64, -2.29, -2.4, 0.0, 0.0, 0.0, 0.0, 7.15, 8.05, 0.0, -8.49, -9.75, -6.95, -5.2, -1.33, 0.79, 3.16, 1.78, -2.37, -10.6, -2.28, 0.0, 0.0, 0.0, 0.0, -1.91, -1.91, -1.44, -1.28, -2.28, -2.08, -2.08, -2.37, -2.16, -2.16, -2.16, -2.16, 5.08, 5.08, 4.1, 4.1, 4.24, 4.24, 4.38, 4.87, 4.87, 5.02, 5.02, 3.58, 3.58, 3.58, 3.58, 3.58, 1.83, 1.83, 1.83, 0.0, 0.0, 0.0, 0.0, 0.0, 0.0, 0.0, 0.0, 0.0, 0.0, 0.0, 0.0, 0.0, 0.0, 0.0, 0.0, 0.0, 0.0, -1.66, -1.66, -1.66, -1.72, -1.72, -3.25, -2.93, -2.82, -3.14, -3.47, -1.77, -3.25, -3.04, -3.32, -2.71, -2.28, -2.28, -2.46, -2.46, -2.21, -2.21, -1.95, -2.21, -2.99, -2.67, -2.64, -1.84, 0.0, 0.0, 5.69, 5.69, 7.15, 7.6, 0.0, -8.49, -9.39, -9.2, -7.9, -6.92, -2.49, 1.56, 5.46, 5.38, 4.12, 3.07, 1.17, 0.0, -1.03, -1.08, -1.2, -2.62, -3.82, -3.47, -3.18, -3.06, -4.12, -4.28, -3.18, -3.18, -3.18, -3.18, 5.08, 5.08, 4.1, 4.1, 4.24, 4.24, 4.38, 4.38, 5.02, 5.02, 5.02, 5.18, 3.58, 3.58, 3.58, 3.58, 1.83, 1.83, 1.83, 0.0, 0.0, 0.0, 0.0, 0.0, 0.0, 0.0, 0.0, 0.0, 0.0, 0.0, 0.0, 0.0, 0.0, 0.0, 0.0, -1.9, -1.83, -1.9, -1.66, -1.66, -1.66, -1.66, -3.14, -2.82, -2.71, -2.93, -3.25, -3.25, -3.25, -2.93, -2.71, -2.49, -2.17, -2.17, -2.06, -2.33, -2.21, -2.21, -1.84, -2.21, -3.17, -2.67, -2.51, -1.72, 0.0, 0.0, 5.69, 5.06, 6.8, 7.6, 0.0, -8.49, -9.11, -8.82, -7.59, -6.2, -1.25, 0.0, 3.86, 7.84, 10.59, 10.34, 5.99, 0.92, -1.89, -3.25, -3.14, -4.1, -5.18, -5.4, -5.08, -4.81, -5.18, -4.99, -5.4, -4.32, -4.32, -4.32, 5.08, 5.08, 4.1, 4.1, 4.1, 4.24, 4.24, 4.38, 5.02, 5.02, 5.02, 5.02, 3.58, 3.58, 3.58, 3.58, 1.83, 1.83, 1.83, 0.0, 0.0, 0.0, 0.0, 0.0, 0.0, 0.0, 0.0, 0.0, 0.0, 0.0, 0.0, 0.0, 0.0, 0.0, -1.83, -1.83, -1.83, -1.83, -1.9, -1.61, -1.61, -1.61, -3.14, -2.82, -2.71, -2.93, -3.14, -3.14, -3.14, -2.93, -2.71, -2.39, -3.14, -2.98, -2.83, -2.21, -2.21, -1.95, -1.84, -1.84, -2.09, -2.67, -1.73, -1.63, -0.96, 0.0, 0.0, 0.0, 0.0, 0.0, -5.69, -7.6, -8.48, -7.87, -4.6, 0.0, 1.91, 1.08, 3.69, 8.43, 11.37, 12.21, 9.11, 5.54, 1.88, -3.76, -6.42, -6.36, -6.53, -6.3, -6.4, -5.75, -5.98, -6.21, -5.2, -5.64, -5.64, -5.64, 5.08, 5.08, 4.1, 4.1, 4.24, 4.24, 4.24, 4.38, 4.87, 5.02, 5.02, 5.02, 3.58, 3.58, 3.58, 3.58, 1.83, 1.83, 1.83, 1.83, 0.0, 0.0, 0.0, 0.0, 0.0, 0.0, 0.0, 0.0, 0.0, 0.0, 0.0, 0.0, 0.0, -2.06, -1.77, -1.77, -1.77, -1.77, -1.83, -1.61, -1.61, -3.14, -3.14, -2.93, -2.71, -2.93, -3.04, -4.39, -4.93, -4.08, -3.77, -3.45, -3.14, -2.98, -3.17, -3.17, -3.17, -2.99, -2.83, -2.67, -2.51, -2.51, -2.35, -1.72, -1.84, 0.0, 0.0, 0.0, 0.0, 0.0, -6.01, -8.49, -8.0, -6.64, 0.0, 7.59, 5.0, 4.39, 6.67, 9.17, 9.67, 8.71, 9.06, 9.6, 7.57, 1.78, -4.97, -8.05, -8.21, -8.02, -7.72, -7.14, -6.86, -7.36, -6.71, -6.71, -6.71, -6.71, 5.08, 5.08, 4.1, 4.1, 4.1, 4.24, 4.38, 4.38, 4.38, 4.87, 5.02, 5.02, 3.47, 3.58, 3.58, 3.58, 1.83, 1.83, 1.83, 1.77, 0.0, 0.0, 0.0, 0.0, 0.0, 0.0, 0.0, 0.0, 0.0, 0.0, 0.0, 0.0, -2.13, -2.06, -1.77, -1.71, -1.71, -1.77, -1.77, -1.77, -1.55, -3.04, -3.04, -2.93, -2.71, -4.24, -4.39, -4.39, -4.75, -4.4, -3.77, -3.61, -3.3, -3.52, -3.17, -2.99, -2.99, -2.99, -2.67, -2.67, -2.67, -2.35, -2.47, -2.11, -1.55, -3.6, 0.0, 0.0, 0.0, 0.0, 0.0, -8.49, -8.94, -6.64, 0.0, 4.6, 5.95, 8.22, 9.66, 9.42, 7.69, 6.66, 9.0, 11.71, 10.6, 6.73, 0.0, -7.43, -8.85, -8.07, -8.53, -8.22, -7.9, -8.24, -7.9, -6.98, -6.98, -6.98, 5.08, 5.08, 4.1, 4.1, 4.1, 4.24, 4.38, 4.38, 4.38, 5.02, 5.02, 3.47, 3.58, 3.58, 3.58, 3.58, 1.83, 1.83, 1.83, 1.83, 0.0, 0.0, 0.0, 0.0, 0.0, 0.0, 0.0, 0.0, 0.0, 0.0, 0.0, -2.2, -2.13, -2.06, -2.06, -1.71, -1.71, -1.71, -1.71, -1.77, -3.04, -3.04, -3.04, -2.93, -4.08, -4.39, -4.55, -4.93, -4.58, -4.23, -4.05, -3.87, -3.87, -3.7, -3.35, -3.17, -2.99, -2.82, -3.55, -3.4, -3.4, -3.33, -2.88, -2.66, -2.2, -3.72, -4.74, -7.15, 0.0, 0.0, 0.0, 0.0, -9.39, -9.39, -9.39, 6.95, 8.55, 10.52, 10.27, 8.82, 6.94, 6.76, 8.43, 10.35, 9.6, 6.84, -1.25, -10.4, -10.09, -7.95, -8.22, -9.08, -8.94, -10.0, -10.6, -10.73, -10.73, -10.73, 5.08, 3.96, 4.1, 4.1, 4.1, 4.24, 4.38, 4.38, 4.38, 5.02, 3.47, 3.47, 3.58, 3.58, 3.58, 3.58, 1.83, 1.83, 1.83, 1.83, 0.0, 0.0, 0.0, 0.0, 0.0, 0.0, 0.0, 0.0, 0.0, 0.0, -2.2, -2.2, -2.13, -2.06, -2.06, -1.71, -1.71, -1.71, -1.71, -1.71, -3.32, -2.93, -2.93, -4.24, -4.24, -4.39, -4.55, -4.93, -4.58, -4.23, -5.1, -4.88, -4.88, -4.44, -4.21, -3.99, -3.99, -3.77, -3.55, -3.55, -3.2, -3.64, -3.38, -2.98, -2.73, -3.47, -5.6, -6.71, -7.15, -8.05, 0.0, 0.0, -6.64, -9.83, -9.39, 0.0, 9.83, 9.83, 10.41, 8.73, 7.02, 7.51, 7.43, 5.96, 5.66, 2.24, 1.05, -9.97, -9.39, -8.03, -5.54, -7.9, -10.6, -8.22, -0.0, -0.0, -0.0, -0.0, 3.96, 3.96, 3.96, 4.1, 4.1, 4.1, 4.24, 4.38, 4.38, 3.47, 3.47, 3.58, 3.58, 3.58, 3.58, 3.58, 1.83, 1.83, 1.83, 0.0, 0.0, 0.0, 0.0, 0.0, 0.0, 0.0, 0.0, 0.0, 0.0, -2.28, -2.2, -2.2, -2.13, -2.13, -2.06, -1.98, -1.71, -1.64, -1.64, -3.19, -3.32, -2.93, -2.93, -4.08, -4.24, -4.39, -4.55, -4.93, -5.99, -5.54, -5.1, -4.88, -4.88, -4.44, -4.21, -3.99, -3.99, -3.77, -3.77, -4.16, -4.16, -3.9, -3.64, -3.43, -3.79, -3.79, -6.36, -6.26, -6.51, -6.79, -6.8, -8.49, -4.2, -4.4, -9.83, 0.0, 9.83, 9.83, 9.75, 7.9, 6.97, 6.45, 5.6, 1.89, 0.0, 0.0, 0.0, -10.0, -6.01, -8.49, -3.49, -5.29, -10.73, -5.0, -0.0, -0.0, -0.0, -0.0, 3.96, 3.96, 3.96, 4.1, 4.1, 4.1, 4.24, 4.38, 3.01, 3.47, 3.47, 3.58, 3.58, 3.58, 3.58, 1.83, 1.83, 1.83, 1.83, 0.0, 0.0, 0.0, 0.0, 0.0, 0.0, 0.0, 0.0, 0.0, 0.0, -2.2, -2.2, -2.13, -2.13, -2.13, -2.06, -1.98, -1.71, -1.64, -1.64, -3.19, -3.19, -2.82, -4.08, -4.08, -4.08, -4.08, -5.4, -5.99, -5.99, -5.54, -5.32, -5.1, -4.88, -4.66, -4.44, -4.21, -4.68, -5.15, -4.42, -4.42, -4.16, -4.36, -4.07, -4.11, -4.46, -4.84, -6.0, -6.71, -6.51, -6.4, -6.8, -7.81, -8.24, -7.44, -8.8, -9.39, 9.39, 9.83, 7.27, 3.39, 6.2, 6.97, 2.93, -0.82, -0.77, -0.75, 0.0, 0.0, -5.95, -9.39, -1.67, -4.37, -9.39, -5.21, -0.0, -0.0, -0.0, -0.0, 3.96, 3.96, 3.96, 3.96, 4.1, 4.1, 4.24, 2.91, 3.01, 3.36, 3.47, 3.47, 3.58, 3.58, 3.58, 1.83, 1.83, 1.83, 1.83, 0.0, 0.0, 0.0, 0.0, 0.0, 0.0, 0.0, 0.0, 0.0, -2.28, -2.2, -2.2, -2.13, -2.13, -2.06, -2.06, -1.98, -1.71, -1.64, -3.19, -3.07, -2.82, -4.08, -4.08, -4.08, -3.92, -5.0, -5.77, -5.77, -5.77, -5.54, -5.32, -5.1, -4.88, -5.72, -5.46, -5.2, -4.94, -5.44, -5.15, -4.95, -4.65, -4.65, -4.36, -4.43, -4.75, -5.09, -5.6, -5.94, -7.15, -6.64, -7.06, -8.33, -8.49, -8.05, -8.05, -8.94, -0.0, 0.0, 0.0, 0.0, 0.0, 2.71, 0.92, 0.0, 0.75, 0.0, 0.0, 0.0, -5.6, -11.18, -6.44, -5.63, -8.05, -6.01, -4.0, -2.28, -2.28, -2.28, 3.96, 3.96, 3.96, 3.96, 3.96, 4.1, 2.91, 3.01, 3.01, 3.36, 3.36, 3.47, 3.58, 3.58, 1.83, 1.83, 1.83, 1.83, 1.83, 0.0, 0.0, 0.0, 0.0, 0.0, 0.0, 0.0, 0.0, 0.0, -2.28, -2.2, -2.2, -2.13, -2.13, -2.06, -2.06, -1.98, -1.98, -3.19, -3.19, -3.07, -4.4, -4.08, -4.08, -3.92, -5.0, -4.8, -5.32, -5.32, -5.32, -5.32, -5.32, -5.1, -5.72, -5.72, -5.72, -5.46, -5.2, -5.72, -6.01, -4.95, -4.95, -5.06, -4.74, -5.09, -5.09, -5.46, -5.82, -5.75, -6.94, -7.15, -8.05, -8.24, -8.77, -8.94, -8.94, -8.24, -8.91, -9.83, -8.55, -5.7, -4.6, 0.0, 0.0, 1.61, 2.45, 1.74, 2.21, 3.96, -6.45, -11.18, -8.94, -9.6, -4.0, -4.0, -4.2, -1.67, -1.67, -1.67, 3.96, 3.96, 3.96, 3.96, 3.96, 2.72, 2.81, 2.91, 2.91, 3.25, 3.36, 3.47, 3.47, 3.58, 1.83, 1.83, 1.83, 1.83, 0.0, 0.0, 0.0, 0.0, 0.0, 0.0, 0.0, 0.0, 0.0, 0.0, -2.28, -2.2, -2.13, -2.13, -2.06, -2.06, -2.06, -1.98, -3.82, -3.19, -3.07, -3.07, -4.4, -3.92, -3.92, -5.0, -4.8, -4.8, -5.32, -5.32, -5.1, -5.1, -5.1, -5.98, -5.98, -5.72, -5.72, -5.46, -6.01, -6.32, -6.01, -5.24, -5.69, -5.37, -5.06, -5.36, -5.36, -5.36, -5.69, -6.28, -5.75, -6.8, -6.8, -8.05, -8.24, -8.67, -8.67, -8.94, -9.39, -9.83, -10.08, -9.2, -9.75, -4.8, -2.62, 0.0, 1.59, 1.7, 7.0, 1.98, -2.02, -8.55, -8.93, -0.0, -0.0, -2.28, -2.28, -1.84, -1.84, -1.84, 3.96, 3.96, 3.96, 3.96, 4.1, 2.81, 2.81, 2.81, 3.25, 3.25, 3.36, 3.47, 3.47, 1.83, 1.83, 1.83, 1.83, 1.83, 0.0, 0.0, 0.0, 0.0, 0.0, 0.0, 0.0, 0.0, 0.0, -2.28, -2.2, -2.2, -2.13, -2.06, -2.06, -2.06, -3.82, -3.82, -3.82, -3.19, -3.19, -4.4, -4.4, -3.92, -3.92, -5.0, -4.8, -5.32, -5.32, -5.1, -5.1, -5.1, -5.98, -5.98, -5.98, -5.72, -5.72, -6.4, -6.64, -6.32, -6.32, -6.01, -5.69, -5.37, -5.72, -5.72, -5.72, -5.72, -5.72, -6.4, -6.28, -6.4, -6.8, -6.8, -8.05, -7.2, -7.6, -8.94, -9.39, -9.83, -10.08, -10.08, -9.97, -8.23, -6.5, -3.81, -0.83, 0.0, 0.0, 2.63, 2.97, -0.0, -0.0, -0.0, -0.0, -0.0, -1.84, -1.84, -1.84, -1.84, 4.39, 4.39, 4.39, 4.39, 3.14, 2.81, 2.81, 3.25, 3.25, 3.25, 3.36, 3.36, 1.77, 1.83, 1.83, 1.83, 1.83, 1.83, 0.0, 0.0, 0.0, 0.0, 0.0, 0.0, 0.0, 0.0, 0.0, -2.28, -2.2, -2.13, -2.13, -2.06, -2.06, -3.82, -3.82, -3.82, -3.68, -3.19, -4.58, -4.4, -4.4, -4.4, -5.0, -4.8, -5.32, -5.32, -5.32, -5.1, -5.1, -5.98, -5.98, -5.72, -5.98, -6.4, -6.4, -6.4, -6.64, -6.64, -6.79, -6.01, -6.01, -6.06, -6.06, -6.08, -5.95, -5.95, -5.72, -6.07, -6.4, -7.06, -7.37, -7.37, -7.15, -6.8, -7.47, -8.77, -9.39, -9.39, -9.83, -9.83, -10.28, -9.55, -7.9, -5.99, -4.29, -2.42, -1.06, 0.0, 3.53, 2.69, 1.54, -0.0, -0.0, -0.0, -0.0, -0.0, -0.0, -0.0, 4.39, 4.39, 4.39, 4.39, 3.14, 3.14, 3.14, 3.25, 3.25, 3.25, 3.36, 1.72, 1.77, 1.77, 1.83, 1.77, 1.77, 0.0, 0.0, 0.0, 0.0, 0.0, 0.0, 0.0, 0.0, 0.0, -1.96, -2.28, -2.2, -2.13, -2.13, -2.06, -3.96, -3.82, -3.82, -3.82, -3.82, -3.19, -4.58, -4.4, -4.4, -4.4, -5.32, -5.32, -5.32, -5.32, -5.1, -5.1, -5.98, -5.98, -5.98, -5.72, -5.72, -6.4, -6.4, -6.11, -6.64, -7.13, -7.13, -6.32, -6.39, -6.39, -6.06, -6.32, -6.32, -5.95, -5.95, -6.08, -6.44, -6.4, -6.57, -7.45, -7.15, -6.94, -7.06, -8.33, -8.94, -9.39, -9.39, -9.83, -10.28, -9.96, -7.9, -6.72, -5.91, -4.12, -2.4, -2.5, 0.0, 1.75, 1.54, -0.0, -0.0, -0.0, -0.0, -0.0, -0.0, -0.0, 4.39, 4.39, 4.39, 3.04, 3.04, 3.14, 3.14, 3.14, 3.25, 3.25, 1.72, 1.72, 1.77, 1.77, 1.77, 1.77, 1.77, 0.0, 0.0, 0.0, 0.0, 0.0, 0.0, 0.0, 0.0, 0.0, -1.96, -2.2, -2.2, -2.13, -2.13, -3.96, -3.82, -3.82, -3.82, -3.82, -3.82, -5.2, -4.58, -4.58, -4.4, -5.54, -5.54, -5.32, -5.32, -5.32, -5.1, -5.98, -5.98, -5.98, -5.72, -6.4, -6.4, -6.4, -6.4, -6.64, -7.13, -6.79, -7.13, -6.73, -6.73, -6.39, -6.35, -6.7, -6.32, -6.64, -6.32, -6.08, -6.44, -6.44, -6.21, -7.2, -6.51, -7.6, -7.15, -7.81, -8.33, -9.39, -9.39, -9.83, -10.28, -10.18, -8.49, -7.18, -5.55, -4.98, -3.24, -1.68, -2.63, 0.0, -0.0, -0.0, -0.0, -0.0, -0.0, -0.0, -0.0, -0.0, 4.39, 4.39, 3.14, 3.14, 3.14, 3.14, 3.14, 3.14, 3.14, 1.66, 1.66, 1.72, 1.77, 1.77, 1.77, 1.77, 0.0, 0.0, 0.0, 0.0, 0.0, 0.0, 0.0, 0.0, 0.0, -1.96, -1.96, -2.2, -2.2, -2.13, -4.1, -3.96, -3.82, -3.82, -3.82, -5.2, -5.2, -5.2, -4.58, -4.4, -4.4, -5.54, -5.54, -5.32, -5.32, -5.32, -6.24, -5.98, -5.98, -5.98, -6.4, -6.4, -6.4, -6.4, -6.64, -7.13, -7.13, -6.79, -7.15, -6.73, -6.73, -6.7, -6.7, -6.7, -6.7, -6.64, -6.64, -6.7, -6.44, -6.44, -6.4, -6.0, -5.2, -5.37, 0.0, -7.6, -8.24, -8.91, -9.39, -9.83, -10.08, -9.86, -8.49, -7.41, -5.8, -4.07, -2.44, -1.63, -0.86, -1.25, -3.39, 0.0, -0.0, -0.0, -0.0, 0.0, 0.0, 0.0, 4.39, 4.39, 3.14, 3.14, 3.14, 3.14, 3.14, 3.14, 3.14, 1.66, 1.66, 1.72, 1.77, 1.77, 1.77, 1.77, 0.0, 0.0, 0.0, 0.0, 0.0, 0.0, 0.0, 0.0, 0.0, -1.96, -1.96, -2.2, -2.2, -2.13, -4.1, -3.96, -3.82, -3.82, -3.82, -5.2, -5.2, -5.2, -4.58, -4.4, -4.4, -5.54, -5.54, -5.32, -5.32, -5.32, -6.24, -5.98, -5.98, -5.98, -6.4, -6.4, -6.4, -6.4, -6.64, -7.13, -7.13, -6.79, -7.15, -6.73, -6.73, -6.7, -6.7, -6.7, -6.7, -6.64, -6.64, -6.7, -6.44, -6.44, -6.4, -6.0, -5.2, -5.37, 0.0, -7.6, -8.67, -8.91, -9.39, -9.83, -10.08, -9.6, -9.09, -7.14, -5.72, -4.0, -3.2, -1.63, -0.79, 0.0, 0.0, 0.0, 0.0, 0.0, 2.97, 2.28, 2.28, 2.28]}]